Time,TemperatureF,DewpointF,PressureIn,WindDirection,WindDirectionDegrees,WindSpeedMPH,WindSpeedGustMPH,Humidity,HourlyPrecipIn,Conditions,Clouds,dailyrainin,SoftwareType,DateUTC
2013-02-23 00:00:00,29.9,26.5,29.94,WNW,299,7.0,10.0,87,0.00,,,0.01,Wunderground v.1.15,2013-02-23 05:00:00,
2013-02-23 00:03:00,29.8,26.4,29.94,WNW,299,4.0,10.0,87,0.00,,,0.01,Wunderground v.1.15,2013-02-23 05:03:00,
2013-02-23 00:05:00,29.8,26.4,29.95,WSW,255,6.0,11.0,87,0.00,,,0.01,Wunderground v.1.15,2013-02-23 05:05:00,
2013-02-23 00:06:00,29.7,26.3,29.94,WNW,297,14.0,14.0,87,0.00,,,0.01,Wunderground v.1.15,2013-02-23 05:06:00,
2013-02-23 00:07:00,29.7,26.3,29.94,WNW,293,11.0,14.0,87,0.00,,,0.01,Wunderground v.1.15,2013-02-23 05:07:00,
2013-02-23 00:11:00,29.7,26.3,29.94,WSW,252,10.0,10.0,87,0.00,,,0.01,Wunderground v.1.15,2013-02-23 05:11:00,
2013-02-23 00:12:00,29.7,26.3,29.94,WSW,250,12.0,12.0,87,0.00,,,0.01,Wunderground v.1.15,2013-02-23 05:12:00,
2013-02-23 00:13:00,29.7,26.3,29.94,WSW,246,14.0,14.0,87,0.00,,,0.01,Wunderground v.1.15,2013-02-23 05:13:00,
2013-02-23 00:15:00,29.7,26.3,29.94,SW,231,4.0,14.0,87,0.00,,,0.01,Wunderground v.1.15,2013-02-23 05:15:00,
2013-02-23 00:17:00,29.6,26.2,29.94,WSW,256,6.0,14.0,87,0.00,,,0.00,Wunderground v.1.15,2013-02-23 05:17:00,
2013-02-23 00:20:00,29.6,26.2,29.95,NW,309,5.0,8.0,87,0.00,,,0.00,Wunderground v.1.15,2013-02-23 05:20:00,
2013-02-23 00:22:00,29.6,26.2,29.94,West,275,15.0,15.0,87,0.00,,,0.00,Wunderground v.1.15,2013-02-23 05:22:00,
2013-02-23 00:23:00,29.6,26.2,29.94,NE,49,5.0,15.0,87,0.00,,,0.00,Wunderground v.1.15,2013-02-23 05:23:00,
2013-02-23 00:27:00,29.7,26.3,29.95,NW,325,15.0,16.0,87,0.00,,,0.00,Wunderground v.1.15,2013-02-23 05:27:00,
2013-02-23 00:29:00,29.6,26.2,29.95,North,355,10.0,16.0,87,0.00,,,0.00,Wunderground v.1.15,2013-02-23 05:29:00,
2013-02-23 00:32:00,29.7,26.3,29.95,NW,320,10.0,10.0,87,0.00,,,0.00,Wunderground v.1.15,2013-02-23 05:32:00,
2013-02-23 00:33:00,29.7,26.3,29.94,NNW,334,12.0,12.0,87,0.00,,,0.00,Wunderground v.1.15,2013-02-23 05:33:00,
2013-02-23 00:34:00,29.7,26.6,29.95,North,350,14.0,14.0,88,0.00,,,0.00,Wunderground v.1.15,2013-02-23 05:34:00,
2013-02-23 00:36:00,29.7,26.6,29.95,NW,325,11.0,14.0,88,0.00,,,0.00,Wunderground v.1.15,2013-02-23 05:36:00,
2013-02-23 00:38:00,29.7,26.3,29.95,NNW,342,11.0,14.0,87,0.00,,,0.00,Wunderground v.1.15,2013-02-23 05:38:00,
2013-02-23 00:42:00,29.6,26.2,29.95,NNW,333,12.0,12.0,87,0.00,,,0.00,Wunderground v.1.15,2013-02-23 05:42:00,
2013-02-23 00:43:00,29.6,26.2,29.95,NNW,340,13.0,13.0,87,0.00,,,0.00,Wunderground v.1.15,2013-02-23 05:43:00,
2013-02-23 00:44:00,29.6,26.5,29.95,NNW,334,10.0,13.0,88,0.00,,,0.00,Wunderground v.1.15,2013-02-23 05:44:00,
2013-02-23 00:45:00,29.6,26.5,29.95,NNW,334,12.0,13.0,88,0.00,,,0.00,Wunderground v.1.15,2013-02-23 05:45:00,
2013-02-23 00:51:00,29.7,26.9,29.94,NNW,334,13.0,17.0,89,0.00,,,0.00,Wunderground v.1.15,2013-02-23 05:51:00,
2013-02-23 00:52:00,29.7,26.9,29.94,North,360,12.0,17.0,89,0.00,,,0.00,Wunderground v.1.15,2013-02-23 05:52:00,
2013-02-23 00:54:00,29.7,26.6,29.94,NW,312,18.0,18.0,88,0.00,,,0.00,Wunderground v.1.15,2013-02-23 05:54:00,
2013-02-23 00:56:00,29.7,26.6,29.94,NNW,330,17.0,18.0,88,0.00,,,0.00,Wunderground v.1.15,2013-02-23 05:56:00,
2013-02-23 00:58:00,29.7,26.6,29.94,NW,317,15.0,18.0,88,0.00,,,0.00,Wunderground v.1.15,2013-02-23 05:58:00,
2013-02-23 01:04:00,29.7,26.3,29.94,WNW,303,16.0,17.0,87,0.00,,,0.00,Wunderground v.1.15,2013-02-23 06:04:00,
2013-02-23 01:05:00,29.7,26.3,29.94,NW,323,16.0,17.0,87,0.00,,,0.00,Wunderground v.1.15,2013-02-23 06:05:00,
2013-02-23 01:07:00,29.7,26.3,29.94,NNW,338,15.0,17.0,87,0.00,,,0.00,Wunderground v.1.15,2013-02-23 06:07:00,
2013-02-23 01:09:00,29.6,26.2,29.94,NNW,342,14.0,17.0,87,0.00,,,0.00,Wunderground v.1.15,2013-02-23 06:09:00,
2013-02-23 01:10:00,29.6,26.2,29.94,NNW,327,16.0,16.0,87,0.00,,,0.00,Wunderground v.1.15,2013-02-23 06:10:00,
2013-02-23 01:13:00,29.6,26.5,29.94,NW,323,11.0,16.0,88,0.00,,,0.00,Wunderground v.1.15,2013-02-23 06:13:00,
2013-02-23 01:14:00,29.7,26.6,29.94,NNW,331,5.0,16.0,88,0.00,,,0.00,Wunderground v.1.15,2013-02-23 06:14:00,
2013-02-23 01:16:00,29.6,26.5,29.94,West,279,7.0,16.0,88,0.00,,,0.00,Wunderground v.1.15,2013-02-23 06:16:00,
2013-02-23 01:18:00,29.5,26.4,29.94,NE,56,4.0,16.0,88,0.00,,,0.00,Wunderground v.1.15,2013-02-23 06:18:00,
2013-02-23 01:21:00,29.5,26.4,29.94,NW,323,9.0,12.0,88,0.00,,,0.00,Wunderground v.1.15,2013-02-23 06:21:00,
2013-02-23 01:22:00,29.5,26.4,29.94,North,355,6.0,12.0,88,0.00,,,0.00,Wunderground v.1.15,2013-02-23 06:22:00,
2013-02-23 01:23:00,29.5,26.4,29.94,NW,323,12.0,12.0,88,0.00,,,0.00,Wunderground v.1.15,2013-02-23 06:23:00,
2013-02-23 01:26:00,29.4,26.3,29.94,SW,217,9.0,12.0,88,0.00,,,0.00,Wunderground v.1.15,2013-02-23 06:26:00,
2013-02-23 01:29:00,29.4,26.3,29.94,West,276,3.0,12.0,88,0.00,,,0.00,Wunderground v.1.15,2013-02-23 06:29:00,
2013-02-23 01:30:00,29.4,26.3,29.94,WSW,249,13.0,13.0,88,0.00,,,0.00,Wunderground v.1.15,2013-02-23 06:30:00,
2013-02-23 01:33:00,29.3,26.2,29.94,North,350,7.0,13.0,88,0.00,,,0.00,Wunderground v.1.15,2013-02-23 06:33:00,
2013-02-23 01:35:00,29.3,26.2,29.94,West,263,13.0,13.0,88,0.00,,,0.00,Wunderground v.1.15,2013-02-23 06:35:00,
2013-02-23 01:37:00,29.3,26.2,29.94,West,263,12.0,13.0,88,0.00,,,0.00,Wunderground v.1.15,2013-02-23 06:37:00,
2013-02-23 01:40:00,29.3,26.2,29.94,SW,221,6.0,9.0,88,0.00,,,0.00,Wunderground v.1.15,2013-02-23 06:40:00,
2013-02-23 01:43:00,29.3,26.2,29.94,WSW,253,12.0,12.0,88,0.00,,,0.00,Wunderground v.1.15,2013-02-23 06:43:00,
2013-02-23 01:44:00,29.2,26.1,29.94,WSW,245,5.0,12.0,88,0.00,,,0.00,Wunderground v.1.15,2013-02-23 06:44:00,
2013-02-23 01:45:00,29.2,26.1,29.94,North,349,5.0,12.0,88,0.00,,,0.00,Wunderground v.1.15,2013-02-23 06:45:00,
2013-02-23 01:50:00,29.2,26.1,29.94,NNW,348,7.0,7.0,88,0.00,,,0.00,Wunderground v.1.15,2013-02-23 06:50:00,
2013-02-23 01:51:00,29.3,26.2,29.94,WNW,286,8.0,8.0,88,0.00,,,0.00,Wunderground v.1.15,2013-02-23 06:51:00,
2013-02-23 01:53:00,29.3,26.2,29.94,NW,318,14.0,14.0,88,0.00,,,0.00,Wunderground v.1.15,2013-02-23 06:53:00,
2013-02-23 01:54:00,29.3,26.5,29.94,NNE,21,11.0,14.0,89,0.00,,,0.00,Wunderground v.1.15,2013-02-23 06:54:00,
2013-02-23 01:56:00,29.3,26.2,29.94,NNW,334,9.0,14.0,88,0.00,,,0.00,Wunderground v.1.15,2013-02-23 06:56:00,
2013-02-23 02:00:00,29.3,26.2,29.94,NNW,345,6.0,11.0,88,0.00,,,0.00,Wunderground v.1.15,2013-02-23 07:00:00,
2013-02-23 02:01:00,29.4,26.3,29.94,NW,314,11.0,16.0,88,0.00,,,0.00,Wunderground v.1.15,2013-02-23 07:01:00,
2013-02-23 02:05:00,29.4,26.3,29.94,NW,317,17.0,20.0,88,0.00,,,0.00,Wunderground v.1.15,2013-02-23 07:05:00,
2013-02-23 02:06:00,29.3,26.2,29.94,NW,319,17.0,20.0,88,0.00,,,0.00,Wunderground v.1.15,2013-02-23 07:06:00,
2013-02-23 02:10:00,29.3,25.9,29.93,NNW,329,19.0,22.0,87,0.00,,,0.00,Wunderground v.1.15,2013-02-23 07:10:00,
2013-02-23 02:11:00,29.3,25.9,29.94,WNW,300,20.0,22.0,87,0.00,,,0.00,Wunderground v.1.15,2013-02-23 07:11:00,
2013-02-23 02:15:00,29.4,26.0,29.93,NW,323,16.0,22.0,87,0.00,,,0.00,Wunderground v.1.15,2013-02-23 07:15:00,
2013-02-23 02:16:00,29.3,25.9,29.93,NNW,338,15.0,22.0,87,0.00,,,0.00,Wunderground v.1.15,2013-02-23 07:16:00,
2013-02-23 02:20:00,29.4,25.7,29.94,North,355,6.0,17.0,86,0.00,,,0.00,Wunderground v.1.15,2013-02-23 07:20:00,
2013-02-23 02:22:00,29.4,25.7,29.93,North,11,12.0,18.0,86,0.00,,,0.00,Wunderground v.1.15,2013-02-23 07:22:00,
2013-02-23 02:25:00,29.3,25.6,29.93,NNW,331,13.0,20.0,86,0.00,,,0.00,Wunderground v.1.15,2013-02-23 07:25:00,
2013-02-23 02:27:00,29.4,25.7,29.93,NW,320,13.0,20.0,86,0.00,,,0.00,Wunderground v.1.15,2013-02-23 07:27:00,
2013-02-23 02:31:00,29.4,25.4,29.93,NNW,340,12.0,19.0,85,0.00,,,0.00,Wunderground v.1.15,2013-02-23 07:31:00,
2013-02-23 02:32:00,29.4,25.4,29.93,NNW,341,14.0,19.0,85,0.00,,,0.00,Wunderground v.1.15,2013-02-23 07:32:00,
2013-02-23 02:33:00,29.4,25.7,29.94,NW,322,10.0,19.0,86,0.00,,,0.00,Wunderground v.1.15,2013-02-23 07:33:00,
2013-02-23 02:36:00,29.3,25.6,29.94,NNW,338,16.0,21.0,86,0.00,,,0.00,Wunderground v.1.15,2013-02-23 07:36:00,
2013-02-23 02:37:00,29.3,25.6,29.94,West,265,10.0,21.0,86,0.00,,,0.00,Wunderground v.1.15,2013-02-23 07:37:00,
2013-02-23 02:38:00,29.3,25.6,29.94,NNW,342,12.0,21.0,86,0.00,,,0.00,Wunderground v.1.15,2013-02-23 07:38:00,
2013-02-23 02:39:00,29.3,25.6,29.94,NNW,333,16.0,21.0,86,0.00,,,0.00,Wunderground v.1.15,2013-02-23 07:39:00,
2013-02-23 02:41:00,29.3,25.6,29.94,NW,315,15.0,16.0,86,0.00,,,0.00,Wunderground v.1.15,2013-02-23 07:41:00,
2013-02-23 02:42:00,29.3,25.6,29.94,NNW,347,12.0,18.0,86,0.00,,,0.00,Wunderground v.1.15,2013-02-23 07:42:00,
2013-02-23 02:43:00,29.2,25.5,29.94,WNW,297,11.0,18.0,86,0.00,,,0.00,Wunderground v.1.15,2013-02-23 07:43:00,
2013-02-23 02:44:00,29.2,25.5,29.94,NW,323,17.0,20.0,86,0.00,,,0.00,Wunderground v.1.15,2013-02-23 07:44:00,
2013-02-23 02:47:00,29.2,25.5,29.94,NNW,328,14.0,20.0,86,0.00,,,0.00,Wunderground v.1.15,2013-02-23 07:47:00,
2013-02-23 02:49:00,29.2,25.8,29.94,NNW,346,11.0,20.0,87,0.00,,,0.00,Wunderground v.1.15,2013-02-23 07:49:00,
2013-02-23 02:52:00,29.1,25.4,29.94,NNE,30,15.0,16.0,86,0.00,,,0.00,Wunderground v.1.15,2013-02-23 07:52:00,
2013-02-23 02:53:00,29.1,25.4,29.94,SSW,192,14.0,17.0,86,0.00,,,0.00,Wunderground v.1.15,2013-02-23 07:53:00,
2013-02-23 02:54:00,29.1,25.4,29.94,NNW,340,15.0,18.0,86,0.00,,,0.00,Wunderground v.1.15,2013-02-23 07:54:00,
2013-02-23 02:58:00,29.1,25.4,29.94,NW,315,17.0,21.0,86,0.00,,,0.00,Wunderground v.1.15,2013-02-23 07:58:00,
2013-02-23 02:59:00,29.1,25.4,29.94,NNE,14,12.0,21.0,86,0.00,,,0.00,Wunderground v.1.15,2013-02-23 07:59:00,
2013-02-23 03:03:00,29.1,25.4,29.94,NW,313,15.0,19.0,86,0.00,,,0.00,Wunderground v.1.15,2013-02-23 08:03:00,
2013-02-23 03:04:00,29.1,25.4,29.94,NW,319,16.0,20.0,86,0.00,,,0.00,Wunderground v.1.15,2013-02-23 08:04:00,
2013-02-23 03:08:00,29.1,25.4,29.94,NNW,348,12.0,22.0,86,0.00,,,0.00,Wunderground v.1.15,2013-02-23 08:08:00,
2013-02-23 03:09:00,29.1,25.4,29.94,NNW,336,17.0,22.0,86,0.00,,,0.00,Wunderground v.1.15,2013-02-23 08:09:00,
2013-02-23 03:10:00,29.1,25.4,29.94,NW,325,15.0,17.0,86,0.00,,,0.00,Wunderground v.1.15,2013-02-23 08:10:00,
2013-02-23 03:14:00,29.1,25.4,29.94,NW,315,17.0,22.0,86,0.00,,,0.00,Wunderground v.1.15,2013-02-23 08:14:00,
2013-02-23 03:15:00,29.1,25.4,29.93,NNW,340,17.0,22.0,86,0.00,,,0.00,Wunderground v.1.15,2013-02-23 08:15:00,
2013-02-23 03:19:00,29.0,25.3,29.93,North,350,13.0,22.0,86,0.00,,,0.00,Wunderground v.1.15,2013-02-23 08:19:00,
2013-02-23 03:20:00,29.0,25.3,29.93,NW,322,12.0,16.0,86,0.00,,,0.00,Wunderground v.1.15,2013-02-23 08:20:00,
2013-02-23 03:24:00,29.1,25.4,29.93,NW,325,13.0,24.0,86,0.00,,,0.00,Wunderground v.1.15,2013-02-23 08:24:00,
2013-02-23 03:25:00,29.1,25.4,29.93,NNW,348,15.0,24.0,86,0.00,,,0.00,Wunderground v.1.15,2013-02-23 08:25:00,
2013-02-23 03:29:00,29.0,25.3,29.93,NW,314,16.0,24.0,86,0.00,,,0.00,Wunderground v.1.15,2013-02-23 08:29:00,
2013-02-23 03:30:00,29.0,25.1,29.93,NW,323,14.0,19.0,85,0.00,,,0.00,Wunderground v.1.15,2013-02-23 08:30:00,
2013-02-23 03:31:00,29.0,25.1,29.93,NNW,327,15.0,19.0,85,0.00,,,0.00,Wunderground v.1.15,2013-02-23 08:31:00,
2013-02-23 03:34:00,29.0,25.3,29.93,WNW,292,12.0,20.0,86,0.00,,,0.00,Wunderground v.1.15,2013-02-23 08:34:00,
2013-02-23 03:35:00,29.0,25.3,29.93,North,355,14.0,20.0,86,0.00,,,0.00,Wunderground v.1.15,2013-02-23 08:35:00,
2013-02-23 03:37:00,29.0,25.3,29.93,NNW,331,13.0,20.0,86,0.00,,,0.00,Wunderground v.1.15,2013-02-23 08:37:00,
2013-02-23 03:39:00,29.0,25.3,29.93,NNW,338,19.0,20.0,86,0.00,,,0.00,Wunderground v.1.15,2013-02-23 08:39:00,
2013-02-23 03:40:00,29.0,25.3,29.93,NNW,348,18.0,21.0,86,0.00,,,0.00,Wunderground v.1.15,2013-02-23 08:40:00,
2013-02-23 03:42:00,29.0,25.3,29.93,West,279,14.0,21.0,86,0.00,,,0.00,Wunderground v.1.15,2013-02-23 08:42:00,
2013-02-23 03:45:00,29.0,25.3,29.93,North,355,12.0,21.0,86,0.00,,,0.00,Wunderground v.1.15,2013-02-23 08:45:00,
2013-02-23 03:46:00,29.0,25.3,29.93,NNW,346,13.0,21.0,86,0.00,,,0.00,Wunderground v.1.15,2013-02-23 08:46:00,
2013-02-23 03:47:00,29.0,25.3,29.93,NW,315,10.0,21.0,86,0.00,,,0.00,Wunderground v.1.15,2013-02-23 08:47:00,
2013-02-23 03:50:00,29.0,25.3,29.93,North,355,9.0,15.0,86,0.00,,,0.00,Wunderground v.1.15,2013-02-23 08:50:00,
2013-02-23 03:51:00,29.0,25.3,29.93,WNW,300,10.0,15.0,86,0.00,,,0.00,Wunderground v.1.15,2013-02-23 08:51:00,
2013-02-23 03:52:00,29.0,25.3,29.93,NW,324,13.0,15.0,86,0.00,,,0.00,Wunderground v.1.15,2013-02-23 08:52:00,
2013-02-23 03:55:00,29.1,25.7,29.93,NNW,348,4.0,18.0,87,0.00,,,0.00,Wunderground v.1.15,2013-02-23 08:55:00,
2013-02-23 03:56:00,29.0,25.6,29.93,NNW,347,12.0,18.0,87,0.00,,,0.00,Wunderground v.1.15,2013-02-23 08:56:00,
2013-02-23 03:58:00,29.0,25.6,29.93,NNW,337,18.0,20.0,87,0.00,,,0.00,Wunderground v.1.15,2013-02-23 08:58:00,
2013-02-23 04:00:00,29.1,25.7,29.93,NW,319,14.0,17.0,87,0.00,,,0.00,Wunderground v.1.15,2013-02-23 09:00:00,
2013-02-23 04:01:00,29.1,25.7,29.93,NW,320,14.0,20.0,87,0.00,,,0.00,Wunderground v.1.15,2013-02-23 09:01:00,
2013-02-23 04:03:00,29.1,25.7,29.93,NW,310,16.0,20.0,87,0.00,,,0.00,Wunderground v.1.15,2013-02-23 09:03:00,
2013-02-23 04:06:00,29.1,25.4,29.93,NNW,330,14.0,20.0,86,0.00,,,0.00,Wunderground v.1.15,2013-02-23 09:06:00,
2013-02-23 04:07:00,29.1,25.7,29.93,WNW,287,14.0,20.0,87,0.00,,,0.00,Wunderground v.1.15,2013-02-23 09:07:00,
2013-02-23 04:08:00,29.1,25.4,29.93,NNW,344,15.0,20.0,86,0.00,,,0.00,Wunderground v.1.15,2013-02-23 09:08:00,
2013-02-23 04:11:00,29.1,25.7,29.93,NNW,336,13.0,17.0,87,0.00,,,0.00,Wunderground v.1.15,2013-02-23 09:11:00,
2013-02-23 04:12:00,29.0,25.6,29.93,NNW,340,15.0,20.0,87,0.00,,,0.00,Wunderground v.1.15,2013-02-23 09:12:00,
2013-02-23 04:13:00,29.1,25.7,29.94,NNW,327,17.0,20.0,87,0.00,,,0.00,Wunderground v.1.15,2013-02-23 09:13:00,
2013-02-23 04:14:00,29.1,25.7,29.94,North,9,13.0,20.0,87,0.00,,,0.00,Wunderground v.1.15,2013-02-23 09:14:00,
2013-02-23 04:16:00,29.1,25.7,29.94,North,360,12.0,20.0,87,0.00,,,0.00,Wunderground v.1.15,2013-02-23 09:16:00,
2013-02-23 04:17:00,29.1,25.7,29.94,NNW,344,14.0,20.0,87,0.00,,,0.00,Wunderground v.1.15,2013-02-23 09:17:00,
2013-02-23 04:18:00,29.0,25.6,29.94,NNW,344,13.0,20.0,87,0.00,,,0.00,Wunderground v.1.15,2013-02-23 09:18:00,
2013-02-23 04:19:00,29.0,25.6,29.94,North,351,11.0,20.0,87,0.00,,,0.00,Wunderground v.1.15,2013-02-23 09:19:00,
2013-02-23 04:21:00,29.0,25.6,29.94,NNW,348,12.0,16.0,87,0.00,,,0.00,Wunderground v.1.15,2013-02-23 09:21:00,
2013-02-23 04:22:00,29.0,25.6,29.93,NNE,13,9.0,16.0,87,0.00,,,0.00,Wunderground v.1.15,2013-02-23 09:22:00,
2013-02-23 04:23:00,29.0,25.6,29.93,NNE,14,6.0,16.0,87,0.00,,,0.00,Wunderground v.1.15,2013-02-23 09:23:00,
2013-02-23 04:24:00,28.9,25.5,29.93,SSW,193,7.0,18.0,87,0.00,,,0.00,Wunderground v.1.15,2013-02-23 09:24:00,
2013-02-23 04:26:00,28.9,25.5,29.93,NW,314,11.0,18.0,87,0.00,,,0.00,Wunderground v.1.15,2013-02-23 09:26:00,
2013-02-23 04:27:00,28.9,25.2,29.93,West,261,11.0,18.0,86,0.00,,,0.00,Wunderground v.1.15,2013-02-23 09:27:00,
2013-02-23 04:29:00,28.9,25.2,29.93,NNW,344,9.0,18.0,86,0.00,,,0.00,Wunderground v.1.15,2013-02-23 09:29:00,
2013-02-23 04:31:00,28.9,25.5,29.93,NNE,32,8.0,17.0,87,0.00,,,0.00,Wunderground v.1.15,2013-02-23 09:31:00,
2013-02-23 04:32:00,28.9,25.5,29.93,NW,317,14.0,17.0,87,0.00,,,0.00,Wunderground v.1.15,2013-02-23 09:32:00,
2013-02-23 04:34:00,28.9,25.5,29.93,WSW,254,16.0,17.0,87,0.00,,,0.00,Wunderground v.1.15,2013-02-23 09:34:00,
2013-02-23 04:35:00,28.9,25.5,29.93,NNW,330,13.0,17.0,87,0.00,,,0.00,Wunderground v.1.15,2013-02-23 09:35:00,
2013-02-23 04:36:00,28.9,25.5,29.93,WNW,300,11.0,19.0,87,0.00,,,0.00,Wunderground v.1.15,2013-02-23 09:36:00,
2013-02-23 04:38:00,28.9,25.5,29.94,NNW,340,6.0,19.0,87,0.00,,,0.00,Wunderground v.1.15,2013-02-23 09:38:00,
2013-02-23 04:39:00,28.9,25.5,29.93,NNW,327,14.0,19.0,87,0.00,,,0.00,Wunderground v.1.15,2013-02-23 09:39:00,
2013-02-23 04:40:00,28.9,25.5,29.93,North,350,11.0,16.0,87,0.00,,,0.00,Wunderground v.1.15,2013-02-23 09:40:00,
2013-02-23 04:41:00,29.0,25.6,29.93,North,355,10.0,16.0,87,0.00,,,0.00,Wunderground v.1.15,2013-02-23 09:41:00,
2013-02-23 04:43:00,29.0,25.6,29.94,North,350,13.0,19.0,87,0.00,,,0.00,Wunderground v.1.15,2013-02-23 09:43:00,
2013-02-23 04:44:00,29.0,25.6,29.94,NW,307,10.0,19.0,87,0.00,,,0.00,Wunderground v.1.15,2013-02-23 09:44:00,
2013-02-23 04:45:00,29.0,25.6,29.93,North,360,10.0,19.0,87,0.00,,,0.00,Wunderground v.1.15,2013-02-23 09:45:00,
2013-02-23 04:46:00,28.9,25.5,29.94,WNW,297,13.0,19.0,87,0.00,,,0.00,Wunderground v.1.15,2013-02-23 09:46:00,
2013-02-23 04:48:00,28.9,25.5,29.94,North,360,13.0,19.0,87,0.00,,,0.00,Wunderground v.1.15,2013-02-23 09:48:00,
2013-02-23 04:49:00,28.9,25.5,29.94,North,350,17.0,19.0,87,0.00,,,0.00,Wunderground v.1.15,2013-02-23 09:49:00,
2013-02-23 04:50:00,28.9,25.5,29.94,NW,307,12.0,16.0,87,0.00,,,0.00,Wunderground v.1.15,2013-02-23 09:50:00,
2013-02-23 04:51:00,28.9,25.5,29.94,WNW,295,18.0,18.0,87,0.00,,,0.00,Wunderground v.1.15,2013-02-23 09:51:00,
2013-02-23 04:53:00,28.9,25.5,29.94,NNW,347,4.0,18.0,87,0.00,,,0.00,Wunderground v.1.15,2013-02-23 09:53:00,
2013-02-23 04:55:00,28.8,25.4,29.94,NE,55,6.0,18.0,87,0.00,,,0.00,Wunderground v.1.15,2013-02-23 09:55:00,
2013-02-23 04:56:00,28.8,25.4,29.94,NNW,336,10.0,18.0,87,0.00,,,0.00,Wunderground v.1.15,2013-02-23 09:56:00,
2013-02-23 04:57:00,28.8,25.4,29.94,North,355,14.0,21.0,87,0.00,,,0.00,Wunderground v.1.15,2013-02-23 09:57:00,
2013-02-23 04:58:00,28.9,25.5,29.94,NNW,338,11.0,21.0,87,0.00,,,0.00,Wunderground v.1.15,2013-02-23 09:58:00,
2013-02-23 05:01:00,28.8,25.4,29.94,NNW,327,10.0,16.0,87,0.00,,,0.00,Wunderground v.1.15,2013-02-23 10:01:00,
2013-02-23 05:02:00,28.8,25.4,29.94,NW,312,20.0,20.0,87,0.00,,,0.00,Wunderground v.1.15,2013-02-23 10:02:00,
2013-02-23 05:04:00,28.8,25.4,29.94,North,355,12.0,20.0,87,0.00,,,0.00,Wunderground v.1.15,2013-02-23 10:04:00,
2013-02-23 05:06:00,28.9,25.5,29.94,North,10,9.0,20.0,87,0.00,,,0.00,Wunderground v.1.15,2013-02-23 10:06:00,
2013-02-23 05:07:00,28.9,25.5,29.94,NNW,346,6.0,20.0,87,0.00,,,0.00,Wunderground v.1.15,2013-02-23 10:07:00,
2013-02-23 05:09:00,28.9,25.5,29.94,WSW,257,8.0,20.0,87,0.00,,,0.00,Wunderground v.1.15,2013-02-23 10:09:00,
2013-02-23 05:11:00,28.9,25.5,29.94,NNW,344,11.0,15.0,87,0.00,,,0.00,Wunderground v.1.15,2013-02-23 10:11:00,
2013-02-23 05:13:00,28.8,25.7,29.94,North,9,10.0,17.0,88,0.00,,,0.00,Wunderground v.1.15,2013-02-23 10:13:00,
2013-02-23 05:14:00,28.8,25.7,29.94,NW,309,12.0,17.0,88,0.00,,,0.00,Wunderground v.1.15,2013-02-23 10:14:00,
2013-02-23 05:16:00,28.8,25.4,29.94,NNW,345,13.0,18.0,87,0.00,,,0.00,Wunderground v.1.15,2013-02-23 10:16:00,
2013-02-23 05:18:00,28.8,25.4,29.94,North,9,13.0,18.0,87,0.00,,,0.00,Wunderground v.1.15,2013-02-23 10:18:00,
2013-02-23 05:19:00,28.8,25.7,29.94,NNW,348,12.0,19.0,88,0.00,,,0.00,Wunderground v.1.15,2013-02-23 10:19:00,
2013-02-23 05:21:00,28.8,25.7,29.94,NNE,21,4.0,20.0,88,0.00,,,0.00,Wunderground v.1.15,2013-02-23 10:21:00,
2013-02-23 05:22:00,28.8,25.7,29.94,North,360,12.0,20.0,88,0.00,,,0.00,Wunderground v.1.15,2013-02-23 10:22:00,
2013-02-23 05:23:00,28.8,25.7,29.94,North,355,11.0,20.0,88,0.00,,,0.00,Wunderground v.1.15,2013-02-23 10:23:00,
2013-02-23 05:24:00,28.8,25.4,29.94,NNW,340,11.0,20.0,87,0.00,,,0.00,Wunderground v.1.15,2013-02-23 10:24:00,
2013-02-23 05:26:00,28.7,25.3,29.94,North,355,13.0,20.0,87,0.00,,,0.00,Wunderground v.1.15,2013-02-23 10:26:00,
2013-02-23 05:27:00,28.8,25.4,29.94,NW,317,17.0,20.0,87,0.00,,,0.00,Wunderground v.1.15,2013-02-23 10:27:00,
2013-02-23 05:28:00,28.8,25.4,29.94,North,355,10.0,20.0,87,0.00,,,0.00,Wunderground v.1.15,2013-02-23 10:28:00,
2013-02-23 05:30:00,28.8,25.4,29.93,WNW,293,14.0,15.0,87,0.00,,,0.00,Wunderground v.1.15,2013-02-23 10:30:00,
2013-02-23 05:31:00,28.7,25.3,29.93,NW,324,18.0,18.0,87,0.00,,,0.00,Wunderground v.1.15,2013-02-23 10:31:00,
2013-02-23 05:32:00,28.7,25.3,29.93,NNW,334,18.0,18.0,87,0.00,,,0.00,Wunderground v.1.15,2013-02-23 10:32:00,
2013-02-23 05:33:00,28.7,25.3,29.93,NNW,331,16.0,18.0,87,0.00,,,0.00,Wunderground v.1.15,2013-02-23 10:33:00,
2013-02-23 05:35:00,28.7,25.3,29.93,NNW,329,12.0,18.0,87,0.00,,,0.00,Wunderground v.1.15,2013-02-23 10:35:00,
2013-02-23 05:37:00,28.7,25.3,29.93,NNW,340,15.0,18.0,87,0.00,,,0.00,Wunderground v.1.15,2013-02-23 10:37:00,
2013-02-23 05:39:00,28.7,25.3,29.93,North,355,18.0,18.0,87,0.00,,,0.00,Wunderground v.1.15,2013-02-23 10:39:00,
2013-02-23 05:40:00,28.7,25.3,29.93,North,360,12.0,15.0,87,0.00,,,0.00,Wunderground v.1.15,2013-02-23 10:40:00,
2013-02-23 05:42:00,28.7,25.3,29.93,NNW,346,13.0,20.0,87,0.00,,,0.00,Wunderground v.1.15,2013-02-23 10:42:00,
2013-02-23 05:44:00,28.7,25.3,29.93,NW,326,12.0,20.0,87,0.00,,,0.00,Wunderground v.1.15,2013-02-23 10:44:00,
2013-02-23 05:46:00,28.6,25.2,29.93,NW,313,16.0,20.0,87,0.00,,,0.00,Wunderground v.1.15,2013-02-23 10:46:00,
2013-02-23 05:47:00,28.6,25.2,29.93,NNW,333,18.0,22.0,87,0.00,,,0.00,Wunderground v.1.15,2013-02-23 10:47:00,
2013-02-23 05:49:00,28.7,25.3,29.93,NNW,347,13.0,22.0,87,0.00,,,0.00,Wunderground v.1.15,2013-02-23 10:49:00,
2013-02-23 05:51:00,28.6,25.2,29.93,NNW,331,13.0,17.0,87,0.00,,,0.00,Wunderground v.1.15,2013-02-23 10:51:00,
2013-02-23 05:52:00,28.6,25.2,29.93,NW,326,16.0,19.0,87,0.00,,,0.00,Wunderground v.1.15,2013-02-23 10:52:00,
2013-02-23 05:53:00,28.6,25.2,29.93,NNW,332,12.0,19.0,87,0.00,,,0.00,Wunderground v.1.15,2013-02-23 10:53:00,
2013-02-23 05:55:00,28.6,25.2,29.94,North,355,6.0,20.0,87,0.00,,,0.00,Wunderground v.1.15,2013-02-23 10:55:00,
2013-02-23 05:56:00,28.6,25.2,29.93,NNW,336,17.0,21.0,87,0.00,,,0.00,Wunderground v.1.15,2013-02-23 10:56:00,
2013-02-23 05:58:00,28.6,25.2,29.93,NW,309,14.0,21.0,87,0.00,,,0.00,Wunderground v.1.15,2013-02-23 10:58:00,
2013-02-23 06:00:00,28.6,25.2,29.94,NNW,331,21.0,21.0,87,0.00,,,0.00,Wunderground v.1.15,2013-02-23 11:00:00,
2013-02-23 06:01:00,28.6,25.5,29.94,NW,321,17.0,21.0,88,0.00,,,0.00,Wunderground v.1.15,2013-02-23 11:01:00,
2013-02-23 06:03:00,28.6,25.5,29.94,NW,316,21.0,21.0,88,0.00,,,0.00,Wunderground v.1.15,2013-02-23 11:03:00,
2013-02-23 06:04:00,28.6,25.5,29.94,NNW,345,18.0,21.0,88,0.00,,,0.00,Wunderground v.1.15,2013-02-23 11:04:00,
2013-02-23 06:05:00,28.6,25.5,29.94,NNW,327,15.0,23.0,88,0.00,,,0.00,Wunderground v.1.15,2013-02-23 11:05:00,
2013-02-23 06:07:00,28.6,25.5,29.94,NNW,327,18.0,23.0,88,0.00,,,0.00,Wunderground v.1.15,2013-02-23 11:07:00,
2013-02-23 06:09:00,28.5,25.1,29.94,NNW,341,21.0,23.0,87,0.00,,,0.00,Wunderground v.1.15,2013-02-23 11:09:00,
2013-02-23 06:11:00,28.5,25.1,29.94,North,355,15.0,20.0,87,0.00,,,0.00,Wunderground v.1.15,2013-02-23 11:11:00,
2013-02-23 06:12:00,28.4,25.0,29.94,NNW,335,17.0,21.0,87,0.00,,,0.00,Wunderground v.1.15,2013-02-23 11:12:00,
2013-02-23 06:14:00,28.5,25.1,29.94,North,350,12.0,21.0,87,0.00,,,0.00,Wunderground v.1.15,2013-02-23 11:14:00,
2013-02-23 06:16:00,28.4,25.0,29.95,NNW,338,15.0,21.0,87,0.00,,,0.00,Wunderground v.1.15,2013-02-23 11:16:00,
2013-02-23 06:17:00,28.4,25.0,29.95,North,355,15.0,21.0,87,0.00,,,0.00,Wunderground v.1.15,2013-02-23 11:17:00,
2013-02-23 06:19:00,28.5,25.1,29.94,NNW,340,18.0,21.0,87,0.00,,,0.00,Wunderground v.1.15,2013-02-23 11:19:00,
2013-02-23 06:20:00,28.5,25.1,29.94,NW,314,16.0,21.0,87,0.00,,,0.00,Wunderground v.1.15,2013-02-23 11:20:00,
2013-02-23 06:22:00,28.5,25.1,29.94,NNW,347,20.0,21.0,87,0.00,,,0.00,Wunderground v.1.15,2013-02-23 11:22:00,
2013-02-23 06:24:00,28.5,25.1,29.95,NNW,337,17.0,22.0,87,0.00,,,0.00,Wunderground v.1.15,2013-02-23 11:24:00,
2013-02-23 06:25:00,28.4,25.0,29.95,NNW,343,14.0,23.0,87,0.00,,,0.00,Wunderground v.1.15,2013-02-23 11:25:00,
2013-02-23 06:27:00,28.5,25.1,29.95,North,350,14.0,23.0,87,0.00,,,0.00,Wunderground v.1.15,2013-02-23 11:27:00,
2013-02-23 06:29:00,28.4,24.7,29.95,NW,317,19.0,23.0,86,0.00,,,0.00,Wunderground v.1.15,2013-02-23 11:29:00,
2013-02-23 06:31:00,28.3,24.6,29.95,NNW,344,14.0,21.0,86,0.00,,,0.00,Wunderground v.1.15,2013-02-23 11:31:00,
2013-02-23 06:32:00,28.3,24.6,29.95,North,355,11.0,21.0,86,0.00,,,0.00,Wunderground v.1.15,2013-02-23 11:32:00,
2013-02-23 06:33:00,28.3,24.6,29.95,NNW,346,14.0,21.0,86,0.00,,,0.00,Wunderground v.1.15,2013-02-23 11:33:00,
2013-02-23 06:35:00,28.3,24.9,29.95,NW,326,13.0,21.0,87,0.00,,,0.00,Wunderground v.1.15,2013-02-23 11:35:00,
2013-02-23 06:36:00,28.3,24.9,29.95,NNW,331,15.0,21.0,87,0.00,,,0.00,Wunderground v.1.15,2013-02-23 11:36:00,
2013-02-23 06:37:00,28.3,24.9,29.95,NW,319,16.0,21.0,87,0.00,,,0.00,Wunderground v.1.15,2013-02-23 11:37:00,
2013-02-23 06:38:00,28.3,24.9,29.95,West,279,15.0,21.0,87,0.00,,,0.00,Wunderground v.1.15,2013-02-23 11:38:00,
2013-02-23 06:40:00,28.3,24.6,29.95,NW,321,18.0,22.0,86,0.00,,,0.00,Wunderground v.1.15,2013-02-23 11:40:00,
2013-02-23 06:41:00,28.3,24.6,29.95,WNW,293,16.0,22.0,86,0.00,,,0.00,Wunderground v.1.15,2013-02-23 11:41:00,
2013-02-23 06:42:00,28.3,24.6,29.95,NNW,329,19.0,24.0,86,0.00,,,0.00,Wunderground v.1.15,2013-02-23 11:42:00,
2013-02-23 06:43:00,28.3,24.6,29.95,NW,322,17.0,24.0,86,0.00,,,0.00,Wunderground v.1.15,2013-02-23 11:43:00,
2013-02-23 06:45:00,28.2,24.6,29.95,NW,322,18.0,24.0,86,0.00,,,0.00,Wunderground v.1.15,2013-02-23 11:45:00,
2013-02-23 06:46:00,28.2,24.6,29.95,NNW,341,17.0,24.0,86,0.00,,,0.00,Wunderground v.1.15,2013-02-23 11:46:00,
2013-02-23 06:47:00,28.1,24.5,29.95,NNW,334,18.0,24.0,86,0.00,,,0.00,Wunderground v.1.15,2013-02-23 11:47:00,
2013-02-23 06:49:00,28.2,24.6,29.95,WNW,302,22.0,24.0,86,0.00,,,0.00,Wunderground v.1.15,2013-02-23 11:49:00,
2013-02-23 06:50:00,28.1,24.5,29.95,NNW,348,17.0,22.0,86,0.00,,,0.00,Wunderground v.1.15,2013-02-23 11:50:00,
2013-02-23 06:52:00,28.1,24.5,29.96,NNW,341,13.0,22.0,86,0.00,,,0.00,Wunderground v.1.15,2013-02-23 11:52:00,
2013-02-23 06:54:00,28.1,24.7,29.96,NNW,346,15.0,22.0,87,0.00,,,0.00,Wunderground v.1.15,2013-02-23 11:54:00,
2013-02-23 06:55:00,28.0,24.4,29.96,NW,325,16.0,22.0,86,0.00,,,0.00,Wunderground v.1.15,2013-02-23 11:55:00,
2013-02-23 06:57:00,28.0,24.4,29.96,WNW,301,13.0,22.0,86,0.00,,,0.00,Wunderground v.1.15,2013-02-23 11:57:00,
2013-02-23 06:58:00,28.0,24.6,29.96,NW,325,14.0,22.0,87,0.00,,,0.00,Wunderground v.1.15,2013-02-23 11:58:00,
2013-02-23 06:59:00,27.9,24.5,29.96,NW,326,15.0,22.0,87,0.00,,,0.00,Wunderground v.1.15,2013-02-23 11:59:00,
2013-02-23 07:00:00,27.9,24.5,29.96,NW,316,13.0,18.0,87,0.00,,,0.00,Wunderground v.1.15,2013-02-23 12:00:00,
2013-02-23 07:02:00,28.0,24.9,29.96,NNW,331,16.0,19.0,88,0.00,,,0.00,Wunderground v.1.15,2013-02-23 12:02:00,
2013-02-23 07:03:00,28.0,24.9,29.96,North,360,12.0,19.0,88,0.00,,,0.00,Wunderground v.1.15,2013-02-23 12:03:00,
2013-02-23 07:04:00,28.0,24.9,29.96,NW,309,18.0,19.0,88,0.00,,,0.00,Wunderground v.1.15,2013-02-23 12:04:00,
2013-02-23 07:05:00,27.9,24.8,29.96,NNW,337,16.0,19.0,88,0.00,,,0.00,Wunderground v.1.15,2013-02-23 12:05:00,
2013-02-23 07:07:00,27.9,24.8,29.96,NNW,348,15.0,19.0,88,0.00,,,0.00,Wunderground v.1.15,2013-02-23 12:07:00,
2013-02-23 07:08:00,27.8,24.7,29.95,NW,326,15.0,19.0,88,0.00,,,0.00,Wunderground v.1.15,2013-02-23 12:08:00,
2013-02-23 07:09:00,27.8,24.7,29.95,NW,306,18.0,20.0,88,0.00,,,0.00,Wunderground v.1.15,2013-02-23 12:09:00,
2013-02-23 07:11:00,27.8,24.7,29.95,NNW,348,18.0,20.0,88,0.00,,,0.00,Wunderground v.1.15,2013-02-23 12:11:00,
2013-02-23 07:13:00,27.8,24.7,29.95,NNW,337,14.0,20.0,88,0.00,,,0.00,Wunderground v.1.15,2013-02-23 12:13:00,
2013-02-23 07:15:00,27.8,24.7,29.96,NW,315,13.0,20.0,88,0.00,,,0.00,Wunderground v.1.15,2013-02-23 12:15:00,
2013-02-23 07:16:00,27.8,24.7,29.95,North,360,12.0,20.0,88,0.00,,,0.00,Wunderground v.1.15,2013-02-23 12:16:00,
2013-02-23 07:18:00,27.8,24.7,29.96,NW,320,17.0,21.0,88,0.00,,,0.00,Wunderground v.1.15,2013-02-23 12:18:00,
2013-02-23 07:20:00,27.9,24.8,29.96,NW,325,19.0,19.0,88,0.00,,,0.00,Wunderground v.1.15,2013-02-23 12:20:00,
2013-02-23 07:21:00,27.9,24.8,29.96,NW,316,14.0,19.0,88,0.00,,,0.00,Wunderground v.1.15,2013-02-23 12:21:00,
2013-02-23 07:23:00,27.8,24.7,29.96,NNW,330,18.0,25.0,88,0.00,,,0.00,Wunderground v.1.15,2013-02-23 12:23:00,
2013-02-23 07:24:00,27.8,24.7,29.96,WNW,302,19.0,25.0,88,0.00,,,0.00,Wunderground v.1.15,2013-02-23 12:24:00,
2013-02-23 07:26:00,27.8,24.4,29.96,NNW,333,14.0,25.0,87,0.00,,,0.00,Wunderground v.1.15,2013-02-23 12:26:00,
2013-02-23 07:28:00,27.8,24.7,29.96,NNW,327,17.0,25.0,88,0.00,,,0.00,Wunderground v.1.15,2013-02-23 12:28:00,
2013-02-23 07:29:00,27.9,24.8,29.96,NW,319,17.0,25.0,88,0.00,,,0.00,Wunderground v.1.15,2013-02-23 12:29:00,
2013-02-23 07:31:00,27.8,24.7,29.96,NNW,329,13.0,18.0,88,0.00,,,0.00,Wunderground v.1.15,2013-02-23 12:31:00,
2013-02-23 07:34:00,27.7,24.9,29.96,NW,314,17.0,22.0,89,0.00,,,0.00,Wunderground v.1.15,2013-02-23 12:34:00,
2013-02-23 07:36:00,27.6,24.5,29.96,NW,314,15.0,22.0,88,0.00,,,0.00,Wunderground v.1.15,2013-02-23 12:36:00,
2013-02-23 07:39:00,27.7,24.9,29.96,NNW,333,20.0,23.0,89,0.00,,,0.00,Wunderground v.1.15,2013-02-23 12:39:00,
2013-02-23 07:41:00,27.8,24.7,29.96,NNW,333,13.0,17.0,88,0.00,,,0.00,Wunderground v.1.15,2013-02-23 12:41:00,
2013-02-23 07:42:00,27.7,24.9,29.96,NW,307,15.0,17.0,89,0.00,,,0.00,Wunderground v.1.15,2013-02-23 12:42:00,
2013-02-23 07:44:00,27.6,24.8,29.97,NW,309,17.0,20.0,89,0.00,,,0.00,Wunderground v.1.15,2013-02-23 12:44:00,
2013-02-23 07:46:00,27.5,24.7,29.96,NW,326,18.0,23.0,89,0.00,,,0.00,Wunderground v.1.15,2013-02-23 12:46:00,
2013-02-23 07:48:00,27.5,24.4,29.97,WNW,302,16.0,23.0,88,0.00,,,0.00,Wunderground v.1.15,2013-02-23 12:48:00,
2013-02-23 07:49:00,27.4,24.6,29.97,North,360,10.0,23.0,89,0.00,,,0.00,Wunderground v.1.15,2013-02-23 12:49:00,
2013-02-23 07:51:00,27.4,24.6,29.97,NNW,344,9.0,21.0,89,0.00,,,0.00,Wunderground v.1.15,2013-02-23 12:51:00,
2013-02-23 07:53:00,27.4,24.6,29.97,NNW,340,10.0,21.0,89,0.00,,,0.00,Wunderground v.1.15,2013-02-23 12:53:00,
2013-02-23 07:54:00,27.4,24.6,29.97,NNW,340,6.0,21.0,89,0.00,,,0.00,Wunderground v.1.15,2013-02-23 12:54:00,
2013-02-23 07:55:00,27.4,24.6,29.97,NW,315,7.0,21.0,89,0.00,,,0.00,Wunderground v.1.15,2013-02-23 12:55:00,
2013-02-23 07:57:00,27.4,24.6,29.97,WNW,292,9.0,21.0,89,0.00,,,0.00,Wunderground v.1.15,2013-02-23 12:57:00,
2013-02-23 07:58:00,27.3,24.2,29.97,North,360,9.0,21.0,88,0.00,,,0.00,Wunderground v.1.15,2013-02-23 12:58:00,
2013-02-23 07:59:00,27.3,24.5,29.97,NNW,342,13.0,21.0,89,0.00,,,0.00,Wunderground v.1.15,2013-02-23 12:59:00,
2013-02-23 08:00:00,27.4,24.3,29.97,NW,321,13.0,15.0,88,0.00,,,0.00,Wunderground v.1.15,2013-02-23 13:00:00,
2013-02-23 08:02:00,27.3,24.2,29.97,NNE,22,11.0,17.0,88,0.00,,,0.00,Wunderground v.1.15,2013-02-23 13:02:00,
2013-02-23 08:04:00,27.3,24.2,29.97,NW,311,17.0,21.0,88,0.00,,,0.00,Wunderground v.1.15,2013-02-23 13:04:00,
2013-02-23 08:05:00,27.4,24.3,29.97,NNW,345,16.0,21.0,88,0.00,,,0.00,Wunderground v.1.15,2013-02-23 13:05:00,
2013-02-23 08:07:00,27.4,24.3,29.97,NW,322,16.0,21.0,88,0.00,,,0.00,Wunderground v.1.15,2013-02-23 13:07:00,
2013-02-23 08:09:00,27.4,24.3,29.97,NNW,341,12.0,21.0,88,0.00,,,0.00,Wunderground v.1.15,2013-02-23 13:09:00,
2013-02-23 08:10:00,27.4,24.3,29.97,NW,326,17.0,19.0,88,0.00,,,0.00,Wunderground v.1.15,2013-02-23 13:10:00,
2013-02-23 08:12:00,27.5,24.7,29.97,NNW,338,20.0,22.0,89,0.00,,,0.00,Wunderground v.1.15,2013-02-23 13:12:00,
2013-02-23 08:14:00,27.5,24.4,29.97,NNW,336,16.0,22.0,88,0.00,,,0.00,Wunderground v.1.15,2013-02-23 13:14:00,
2013-02-23 08:15:00,27.5,24.4,29.97,NNW,327,18.0,22.0,88,0.00,,,0.00,Wunderground v.1.15,2013-02-23 13:15:00,
2013-02-23 08:16:00,27.5,24.4,29.97,NW,315,18.0,22.0,88,0.00,,,0.00,Wunderground v.1.15,2013-02-23 13:16:00,
2013-02-23 08:17:00,27.5,24.4,29.97,NW,322,15.0,22.0,88,0.00,,,0.00,Wunderground v.1.15,2013-02-23 13:17:00,
2013-02-23 08:19:00,27.5,24.4,29.97,NW,318,17.0,22.0,88,0.00,,,0.00,Wunderground v.1.15,2013-02-23 13:19:00,
2013-02-23 08:20:00,27.5,24.4,29.97,NNW,329,15.0,22.0,88,0.00,,,0.00,Wunderground v.1.15,2013-02-23 13:20:00,
2013-02-23 08:21:00,27.5,24.4,29.97,NNW,346,13.0,22.0,88,0.00,,,0.00,Wunderground v.1.15,2013-02-23 13:21:00,
2013-02-23 08:23:00,27.4,24.3,29.97,NW,316,19.0,22.0,88,0.00,,,0.00,Wunderground v.1.15,2013-02-23 13:23:00,
2013-02-23 08:24:00,27.6,24.8,29.97,NW,321,18.0,22.0,89,0.00,,,0.00,Wunderground v.1.15,2013-02-23 13:24:00,
2013-02-23 08:25:00,27.6,24.8,29.97,NW,314,15.0,22.0,89,0.00,,,0.00,Wunderground v.1.15,2013-02-23 13:25:00,
2013-02-23 08:26:00,27.6,24.8,29.97,NW,315,20.0,22.0,89,0.00,,,0.00,Wunderground v.1.15,2013-02-23 13:26:00,
2013-02-23 08:28:00,27.5,24.4,29.97,NW,322,18.0,22.0,88,0.00,,,0.00,Wunderground v.1.15,2013-02-23 13:28:00,
2013-02-23 08:29:00,27.5,24.4,29.97,NW,306,19.0,24.0,88,0.00,,,0.00,Wunderground v.1.15,2013-02-23 13:29:00,
2013-02-23 08:31:00,27.5,24.4,29.97,NW,314,18.0,22.0,88,0.00,,,0.00,Wunderground v.1.15,2013-02-23 13:31:00,
2013-02-23 08:33:00,27.4,24.0,29.97,NW,311,18.0,22.0,87,0.00,,,0.00,Wunderground v.1.15,2013-02-23 13:33:00,
2013-02-23 08:35:00,27.4,24.3,29.97,NW,313,16.0,22.0,88,0.00,,,0.00,Wunderground v.1.15,2013-02-23 13:35:00,
2013-02-23 08:36:00,27.4,24.3,29.97,WNW,302,16.0,22.0,88,0.00,,,0.00,Wunderground v.1.15,2013-02-23 13:36:00,
2013-02-23 08:37:00,27.4,24.3,29.97,NW,310,19.0,22.0,88,0.00,,,0.00,Wunderground v.1.15,2013-02-23 13:37:00,
2013-02-23 08:39:00,27.4,24.0,29.97,NW,315,21.0,22.0,87,0.00,,,0.00,Wunderground v.1.15,2013-02-23 13:39:00,
2013-02-23 08:40:00,27.4,24.0,29.97,NW,325,17.0,19.0,87,0.00,,,0.00,Wunderground v.1.15,2013-02-23 13:40:00,
2013-02-23 08:41:00,27.4,24.0,29.96,NNW,342,17.0,21.0,87,0.00,,,0.00,Wunderground v.1.15,2013-02-23 13:41:00,
2013-02-23 08:42:00,27.4,24.0,29.96,NNW,334,13.0,21.0,87,0.00,,,0.00,Wunderground v.1.15,2013-02-23 13:42:00,
2013-02-23 08:45:00,27.4,24.0,29.96,NNW,340,14.0,21.0,87,0.00,,,0.00,Wunderground v.1.15,2013-02-23 13:45:00,
2013-02-23 08:46:00,27.3,24.2,29.96,NNW,342,16.0,21.0,88,0.00,,,0.00,Wunderground v.1.15,2013-02-23 13:46:00,
2013-02-23 08:47:00,27.4,24.3,29.96,WNW,296,17.0,21.0,88,0.00,,,0.00,Wunderground v.1.15,2013-02-23 13:47:00,
2013-02-23 08:48:00,27.4,24.3,29.96,NW,318,17.0,23.0,88,0.00,,,0.00,Wunderground v.1.15,2013-02-23 13:48:00,
2013-02-23 08:50:00,27.4,24.3,29.96,NW,321,16.0,23.0,88,0.00,,,0.00,Wunderground v.1.15,2013-02-23 13:50:00,
2013-02-23 08:51:00,27.4,24.3,29.96,NW,314,19.0,22.0,88,0.00,,,0.00,Wunderground v.1.15,2013-02-23 13:51:00,
2013-02-23 08:52:00,27.4,24.3,29.96,NNW,334,19.0,24.0,88,0.00,,,0.00,Wunderground v.1.15,2013-02-23 13:52:00,
2013-02-23 08:53:00,27.4,24.3,29.96,NW,325,16.0,24.0,88,0.00,,,0.00,Wunderground v.1.15,2013-02-23 13:53:00,
2013-02-23 08:55:00,27.3,23.9,29.96,NNW,331,18.0,24.0,87,0.00,,,0.00,Wunderground v.1.15,2013-02-23 13:55:00,
2013-02-23 08:57:00,27.4,24.3,29.96,NW,316,17.0,24.0,88,0.00,,,0.00,Wunderground v.1.15,2013-02-23 13:57:00,
2013-02-23 08:58:00,27.4,24.3,29.96,NNW,327,18.0,24.0,88,0.00,,,0.00,Wunderground v.1.15,2013-02-23 13:58:00,
2013-02-23 09:00:00,27.4,24.3,29.96,NW,317,17.0,20.0,88,0.00,,,0.00,Wunderground v.1.15,2013-02-23 14:00:00,
2013-02-23 09:02:00,27.4,24.0,29.96,NW,320,15.0,20.0,87,0.00,,,0.00,Wunderground v.1.15,2013-02-23 14:02:00,
2013-02-23 09:03:00,27.3,23.9,29.96,NW,314,18.0,21.0,87,0.00,,,0.00,Wunderground v.1.15,2013-02-23 14:03:00,
2013-02-23 09:05:00,27.3,23.9,29.96,NW,321,17.0,21.0,87,0.00,,,0.00,Wunderground v.1.15,2013-02-23 14:05:00,
2013-02-23 09:07:00,27.3,24.2,29.96,NNW,328,14.0,21.0,88,0.00,,,0.00,Wunderground v.1.15,2013-02-23 14:07:00,
2013-02-23 09:08:00,27.3,24.2,29.96,NW,313,18.0,21.0,88,0.00,,,0.00,Wunderground v.1.15,2013-02-23 14:08:00,
2013-02-23 09:09:00,27.3,24.2,29.96,NNW,329,19.0,21.0,88,0.00,,,0.00,Wunderground v.1.15,2013-02-23 14:09:00,
2013-02-23 09:10:00,27.3,23.9,29.96,NW,317,16.0,22.0,87,0.00,,,0.00,Wunderground v.1.15,2013-02-23 14:10:00,
2013-02-23 09:12:00,27.2,23.8,29.96,NNW,346,14.0,22.0,87,0.00,,,0.00,Wunderground v.1.15,2013-02-23 14:12:00,
2013-02-23 09:13:00,27.2,23.8,29.96,NW,319,15.0,22.0,87,0.00,,,0.00,Wunderground v.1.15,2013-02-23 14:13:00,
2013-02-23 09:14:00,27.2,23.8,29.96,NW,304,18.0,22.0,87,0.00,,,0.00,Wunderground v.1.15,2013-02-23 14:14:00,
2013-02-23 09:16:00,27.2,23.8,29.96,NNW,329,13.0,22.0,87,0.00,,,0.00,Wunderground v.1.15,2013-02-23 14:16:00,
2013-02-23 09:18:00,27.2,23.8,29.96,NW,312,17.0,22.0,87,0.00,,,0.00,Wunderground v.1.15,2013-02-23 14:18:00,
2013-02-23 09:19:00,27.2,23.8,29.96,NW,325,16.0,22.0,87,0.00,,,0.00,Wunderground v.1.15,2013-02-23 14:19:00,
2013-02-23 09:21:00,27.2,23.8,29.96,NW,316,16.0,20.0,87,0.00,,,0.00,Wunderground v.1.15,2013-02-23 14:21:00,
2013-02-23 09:23:00,27.1,23.7,29.97,NW,310,12.0,22.0,87,0.00,,,0.00,Wunderground v.1.15,2013-02-23 14:23:00,
2013-02-23 09:25:00,27.1,23.7,29.96,NNW,332,17.0,22.0,87,0.00,,,0.00,Wunderground v.1.15,2013-02-23 14:25:00,
2013-02-23 09:26:00,27.1,23.7,29.96,NW,317,16.0,22.0,87,0.00,,,0.00,Wunderground v.1.15,2013-02-23 14:26:00,
2013-02-23 09:28:00,27.1,23.5,29.96,NW,310,16.0,22.0,86,0.00,,,0.00,Wunderground v.1.15,2013-02-23 14:28:00,
2013-02-23 09:29:00,27.1,23.5,29.96,NNW,331,14.0,22.0,86,0.00,,,0.00,Wunderground v.1.15,2013-02-23 14:29:00,
2013-02-23 09:30:00,27.1,23.5,29.96,NNW,327,14.0,15.0,86,0.00,,,0.00,Wunderground v.1.15,2013-02-23 14:30:00,
2013-02-23 09:31:00,27.1,23.5,29.96,NNW,328,17.0,20.0,86,0.00,,,0.00,Wunderground v.1.15,2013-02-23 14:31:00,
2013-02-23 09:33:00,27.0,23.4,29.96,NW,326,16.0,20.0,86,0.00,,,0.00,Wunderground v.1.15,2013-02-23 14:33:00,
2013-02-23 09:35:00,27.1,23.7,29.96,NNW,331,13.0,20.0,87,0.00,,,0.00,Wunderground v.1.15,2013-02-23 14:35:00,
2013-02-23 09:36:00,27.1,23.5,29.96,NW,325,17.0,20.0,86,0.00,,,0.00,Wunderground v.1.15,2013-02-23 14:36:00,
2013-02-23 09:39:00,27.1,23.5,29.96,NNW,329,16.0,20.0,86,0.00,,,0.00,Wunderground v.1.15,2013-02-23 14:39:00,
2013-02-23 09:40:00,27.1,23.5,29.96,NNW,333,7.0,15.0,86,0.00,,,0.00,Wunderground v.1.15,2013-02-23 14:40:00,
2013-02-23 09:41:00,27.1,23.5,29.95,WNW,299,19.0,20.0,86,0.00,,,0.00,Wunderground v.1.15,2013-02-23 14:41:00,
2013-02-23 09:44:00,27.0,23.1,29.96,NW,315,18.0,20.0,85,0.00,,,0.00,Wunderground v.1.15,2013-02-23 14:44:00,
2013-02-23 09:45:00,27.0,23.1,29.96,NW,326,16.0,20.0,85,0.00,,,0.00,Wunderground v.1.15,2013-02-23 14:45:00,
2013-02-23 09:46:00,27.1,23.2,29.95,NW,325,16.0,20.0,85,0.00,,,0.00,Wunderground v.1.15,2013-02-23 14:46:00,
2013-02-23 09:49:00,27.1,23.5,29.96,NW,313,12.0,20.0,86,0.00,,,0.00,Wunderground v.1.15,2013-02-23 14:49:00,
2013-02-23 09:50:00,27.1,23.5,29.96,NW,321,15.0,16.0,86,0.00,,,0.00,Wunderground v.1.15,2013-02-23 14:50:00,
2013-02-23 09:51:00,27.1,23.5,29.95,NW,321,17.0,17.0,86,0.00,,,0.00,Wunderground v.1.15,2013-02-23 14:51:00,
2013-02-23 09:54:00,27.1,23.5,29.96,NNW,338,14.0,20.0,86,0.00,,,0.00,Wunderground v.1.15,2013-02-23 14:54:00,
2013-02-23 09:55:00,27.1,23.7,29.95,NW,317,19.0,20.0,87,0.00,,,0.00,Wunderground v.1.15,2013-02-23 14:55:00,
2013-02-23 09:56:00,27.1,23.7,29.95,NW,315,14.0,20.0,87,0.00,,,0.00,Wunderground v.1.15,2013-02-23 14:56:00,
2013-02-23 09:59:00,27.0,23.4,29.96,NNW,348,13.0,20.0,86,0.00,,,0.00,Wunderground v.1.15,2013-02-23 14:59:00,
2013-02-23 10:01:00,27.0,23.4,29.96,NNW,346,7.0,14.0,86,0.00,,,0.00,Wunderground v.1.15,2013-02-23 15:01:00,
2013-02-23 10:05:00,26.9,23.3,29.96,WSW,246,13.0,14.0,86,0.00,,,0.00,Wunderground v.1.15,2013-02-23 15:05:00,
2013-02-23 10:06:00,26.9,23.3,29.96,NW,325,16.0,17.0,86,0.00,,,0.00,Wunderground v.1.15,2013-02-23 15:06:00,
2013-02-23 10:10:00,26.8,23.2,29.96,NNW,344,5.0,9.0,86,0.00,,,0.00,Wunderground v.1.15,2013-02-23 15:10:00,
2013-02-23 10:11:00,26.9,23.3,29.96,NW,323,9.0,12.0,86,0.00,,,0.00,Wunderground v.1.15,2013-02-23 15:11:00,
2013-02-23 10:12:00,26.9,23.3,29.96,NNW,346,16.0,19.0,86,0.00,,,0.00,Wunderground v.1.15,2013-02-23 15:12:00,
2013-02-23 10:15:00,27.0,23.4,29.96,NNW,342,4.0,19.0,86,0.00,,,0.00,Wunderground v.1.15,2013-02-23 15:15:00,
2013-02-23 10:17:00,27.0,23.4,29.96,WNW,299,12.0,19.0,86,0.00,,,0.00,Wunderground v.1.15,2013-02-23 15:17:00,
2013-02-23 10:19:00,27.0,23.4,29.96,NW,317,16.0,19.0,86,0.00,,,0.00,Wunderground v.1.15,2013-02-23 15:19:00,
2013-02-23 10:20:00,26.9,23.3,29.96,NW,315,15.0,16.0,86,0.00,,,0.00,Wunderground v.1.15,2013-02-23 15:20:00,
2013-02-23 10:22:00,27.0,23.6,29.96,NW,322,8.0,16.0,87,0.00,,,0.00,Wunderground v.1.15,2013-02-23 15:22:00,
2013-02-23 10:24:00,27.0,23.4,29.97,North,9,10.0,16.0,86,0.00,,,0.00,Wunderground v.1.15,2013-02-23 15:24:00,
2013-02-23 10:25:00,27.0,23.4,29.97,North,9,12.0,17.0,86,0.00,,,0.00,Wunderground v.1.15,2013-02-23 15:25:00,
2013-02-23 10:27:00,27.0,23.4,29.96,NNW,331,14.0,18.0,86,0.00,,,0.00,Wunderground v.1.15,2013-02-23 15:27:00,
2013-02-23 10:28:00,27.0,23.4,29.97,NW,325,14.0,18.0,86,0.00,,,0.00,Wunderground v.1.15,2013-02-23 15:28:00,
2013-02-23 10:29:00,27.0,23.4,29.97,NNW,331,13.0,18.0,86,0.00,,,0.00,Wunderground v.1.15,2013-02-23 15:29:00,
2013-02-23 10:30:00,27.1,23.5,29.97,NNW,332,10.0,12.0,86,0.00,,,0.00,Wunderground v.1.15,2013-02-23 15:30:00,
2013-02-23 10:32:00,27.0,23.4,29.97,WNW,302,13.0,16.0,86,0.00,,,0.00,Wunderground v.1.15,2013-02-23 15:32:00,
2013-02-23 10:33:00,27.0,23.4,29.97,NNW,340,14.0,16.0,86,0.00,,,0.00,Wunderground v.1.15,2013-02-23 15:33:00,
2013-02-23 10:35:00,27.0,23.4,29.97,NW,313,3.0,16.0,86,0.00,,,0.00,Wunderground v.1.15,2013-02-23 15:35:00,
2013-02-23 10:36:00,27.0,23.1,29.97,North,355,10.0,16.0,85,0.00,,,0.00,Wunderground v.1.15,2013-02-23 15:36:00,
2013-02-23 10:38:00,26.9,23.0,29.97,NNW,327,11.0,16.0,85,0.00,,,0.00,Wunderground v.1.15,2013-02-23 15:38:00,
2013-02-23 10:40:00,27.0,23.1,29.97,North,360,11.0,13.0,85,0.00,,,0.00,Wunderground v.1.15,2013-02-23 15:40:00,
2013-02-23 10:41:00,27.0,23.1,29.97,NNW,338,12.0,16.0,85,0.00,,,0.00,Wunderground v.1.15,2013-02-23 15:41:00,
2013-02-23 10:43:00,26.9,23.0,29.97,NNW,327,15.0,18.0,85,0.00,,,0.00,Wunderground v.1.15,2013-02-23 15:43:00,
2013-02-23 10:45:00,27.0,23.4,29.97,NW,325,18.0,18.0,86,0.00,,,0.00,Wunderground v.1.15,2013-02-23 15:45:00,
2013-02-23 10:46:00,27.0,23.4,29.97,NNW,334,11.0,18.0,86,0.00,,,0.00,Wunderground v.1.15,2013-02-23 15:46:00,
2013-02-23 10:48:00,27.0,23.1,29.97,NNW,331,18.0,19.0,85,0.00,,,0.00,Wunderground v.1.15,2013-02-23 15:48:00,
2013-02-23 10:49:00,27.0,23.1,29.97,NW,325,17.0,19.0,85,0.00,,,0.00,Wunderground v.1.15,2013-02-23 15:49:00,
2013-02-23 10:50:00,27.0,23.1,29.97,NNW,334,15.0,15.0,85,0.00,,,0.00,Wunderground v.1.15,2013-02-23 15:50:00,
2013-02-23 10:52:00,27.0,22.8,29.97,NW,304,10.0,17.0,84,0.00,,,0.00,Wunderground v.1.15,2013-02-23 15:52:00,
2013-02-23 10:53:00,27.0,22.5,29.97,NW,323,14.0,17.0,83,0.00,,,0.00,Wunderground v.1.15,2013-02-23 15:53:00,
2013-02-23 10:54:00,27.0,22.5,29.97,NNW,341,13.0,17.0,83,0.00,,,0.00,Wunderground v.1.15,2013-02-23 15:54:00,
2013-02-23 10:56:00,27.1,22.9,29.97,NNW,332,16.0,17.0,84,0.00,,,0.00,Wunderground v.1.15,2013-02-23 15:56:00,
2013-02-23 10:57:00,27.1,22.6,29.97,NNW,329,17.0,17.0,83,0.00,,,0.00,Wunderground v.1.15,2013-02-23 15:57:00,
2013-02-23 10:58:00,27.1,22.6,29.97,NNW,330,18.0,19.0,83,0.00,,,0.00,Wunderground v.1.15,2013-02-23 15:58:00,
2013-02-23 10:59:00,27.1,22.6,29.97,NW,317,18.0,19.0,83,0.00,,,0.00,Wunderground v.1.15,2013-02-23 15:59:00,
2013-02-23 11:01:00,27.1,22.9,29.97,NNW,329,13.0,19.0,84,0.00,,,0.00,Wunderground v.1.15,2013-02-23 16:01:00,
2013-02-23 11:02:00,27.2,23.3,29.97,NNW,335,17.0,22.0,85,0.00,,,0.00,Wunderground v.1.15,2013-02-23 16:02:00,
2013-02-23 11:03:00,27.2,23.3,29.97,NW,313,15.0,22.0,85,0.00,,,0.00,Wunderground v.1.15,2013-02-23 16:03:00,
2013-02-23 11:04:00,27.1,23.2,29.97,NNW,336,10.0,22.0,85,0.00,,,0.00,Wunderground v.1.15,2013-02-23 16:04:00,
2013-02-23 11:06:00,27.1,22.9,29.97,NW,322,17.0,22.0,84,0.00,,,0.00,Wunderground v.1.15,2013-02-23 16:06:00,
2013-02-23 11:07:00,27.1,22.9,29.97,NNW,330,12.0,22.0,84,0.00,,,0.00,Wunderground v.1.15,2013-02-23 16:07:00,
2013-02-23 11:09:00,27.0,22.8,29.97,NNE,16,10.0,22.0,84,0.00,,,0.00,Wunderground v.1.15,2013-02-23 16:09:00,
2013-02-23 11:11:00,27.0,22.8,29.97,NNW,336,13.0,15.0,84,0.00,,,0.00,Wunderground v.1.15,2013-02-23 16:11:00,
2013-02-23 11:12:00,27.0,22.8,29.97,WNW,303,16.0,18.0,84,0.00,,,0.00,Wunderground v.1.15,2013-02-23 16:12:00,
2013-02-23 11:14:00,27.0,22.8,29.97,NW,313,16.0,20.0,84,0.00,,,0.00,Wunderground v.1.15,2013-02-23 16:14:00,
2013-02-23 11:16:00,27.0,22.8,29.97,NW,315,16.0,20.0,84,0.00,,,0.00,Wunderground v.1.15,2013-02-23 16:16:00,
2013-02-23 11:18:00,27.0,22.5,29.97,WNW,288,14.0,20.0,83,0.00,,,0.00,Wunderground v.1.15,2013-02-23 16:18:00,
2013-02-23 11:19:00,26.9,22.4,29.97,NNW,335,15.0,20.0,83,0.00,,,0.00,Wunderground v.1.15,2013-02-23 16:19:00,
2013-02-23 11:20:00,26.9,22.7,29.97,NW,312,12.0,15.0,84,0.00,,,0.00,Wunderground v.1.15,2013-02-23 16:20:00,
2013-02-23 11:21:00,26.9,22.7,29.97,North,360,17.0,20.0,84,0.00,,,0.00,Wunderground v.1.15,2013-02-23 16:21:00,
2013-02-23 11:23:00,26.9,22.4,29.97,NW,318,16.0,20.0,83,0.00,,,0.00,Wunderground v.1.15,2013-02-23 16:23:00,
2013-02-23 11:24:00,26.9,22.4,29.97,NNW,337,14.0,20.0,83,0.00,,,0.00,Wunderground v.1.15,2013-02-23 16:24:00,
2013-02-23 11:25:00,26.8,22.3,29.97,NNW,333,13.0,20.0,83,0.00,,,0.00,Wunderground v.1.15,2013-02-23 16:25:00,
2013-02-23 11:27:00,26.8,22.0,29.97,WNW,302,14.0,20.0,82,0.00,,,0.00,Wunderground v.1.15,2013-02-23 16:27:00,
2013-02-23 11:28:00,26.9,22.4,29.97,NW,321,14.0,20.0,83,0.00,,,0.00,Wunderground v.1.15,2013-02-23 16:28:00,
2013-02-23 11:30:00,26.9,22.4,29.97,WNW,298,15.0,15.0,83,0.00,,,0.00,Wunderground v.1.15,2013-02-23 16:30:00,
2013-02-23 11:32:00,26.9,22.4,29.97,WNW,300,15.0,17.0,83,0.00,,,0.00,Wunderground v.1.15,2013-02-23 16:32:00,
2013-02-23 11:33:00,26.9,22.4,29.97,NW,313,16.0,18.0,83,0.00,,,0.00,Wunderground v.1.15,2013-02-23 16:33:00,
2013-02-23 11:35:00,26.9,22.4,29.97,NNW,334,15.0,20.0,83,0.00,,,0.00,Wunderground v.1.15,2013-02-23 16:35:00,
2013-02-23 11:36:00,26.9,22.4,29.97,NNW,336,13.0,20.0,83,0.00,,,0.00,Wunderground v.1.15,2013-02-23 16:36:00,
2013-02-23 11:37:00,26.9,22.4,29.97,NW,304,15.0,20.0,83,0.00,,,0.00,Wunderground v.1.15,2013-02-23 16:37:00,
2013-02-23 11:40:00,26.9,22.1,29.97,NW,326,14.0,15.0,82,0.00,,,0.00,Wunderground v.1.15,2013-02-23 16:40:00,
2013-02-23 11:41:00,26.9,22.4,29.97,NNW,338,13.0,15.0,83,0.00,,,0.00,Wunderground v.1.15,2013-02-23 16:41:00,
2013-02-23 11:42:00,26.9,22.1,29.97,NNW,338,13.0,19.0,82,0.00,,,0.00,Wunderground v.1.15,2013-02-23 16:42:00,
2013-02-23 11:45:00,27.0,22.5,29.97,NNW,334,17.0,19.0,83,0.00,,,0.00,Wunderground v.1.15,2013-02-23 16:45:00,
2013-02-23 11:46:00,27.0,22.5,29.97,NW,322,12.0,19.0,83,0.00,,,0.00,Wunderground v.1.15,2013-02-23 16:46:00,
2013-02-23 11:47:00,27.0,22.5,29.97,North,350,14.0,19.0,83,0.00,,,0.00,Wunderground v.1.15,2013-02-23 16:47:00,
2013-02-23 11:50:00,26.9,21.8,29.97,NW,318,16.0,19.0,81,0.00,,,0.00,Wunderground v.1.15,2013-02-23 16:50:00,
2013-02-23 11:51:00,26.9,21.8,29.97,NW,319,17.0,19.0,81,0.00,,,0.00,Wunderground v.1.15,2013-02-23 16:51:00,
2013-02-23 11:52:00,26.9,21.8,29.97,WNW,300,14.0,19.0,81,0.00,,,0.00,Wunderground v.1.15,2013-02-23 16:52:00,
2013-02-23 11:55:00,26.9,21.8,29.97,NNW,338,12.0,19.0,81,0.00,,,0.00,Wunderground v.1.15,2013-02-23 16:55:00,
2013-02-23 11:56:00,26.9,21.8,29.97,NW,326,14.0,19.0,81,0.00,,,0.00,Wunderground v.1.15,2013-02-23 16:56:00,
2013-02-23 11:57:00,26.9,21.8,29.97,NW,322,17.0,19.0,81,0.00,,,0.00,Wunderground v.1.15,2013-02-23 16:57:00,
2013-02-23 11:58:00,26.9,22.1,29.98,NW,324,15.0,19.0,82,0.00,,,0.00,Wunderground v.1.15,2013-02-23 16:58:00,
2013-02-23 12:01:00,26.9,22.1,29.98,NW,325,13.0,19.0,82,0.00,,,0.00,Wunderground v.1.15,2013-02-23 17:01:00,
2013-02-23 12:02:00,26.9,22.1,29.98,NW,319,14.0,19.0,82,0.00,,,0.00,Wunderground v.1.15,2013-02-23 17:02:00,
2013-02-23 12:03:00,26.9,22.1,29.98,WNW,294,13.0,19.0,82,0.00,,,0.00,Wunderground v.1.15,2013-02-23 17:03:00,
2013-02-23 12:06:00,26.9,21.8,29.98,NW,314,15.0,19.0,81,0.00,,,0.00,Wunderground v.1.15,2013-02-23 17:06:00,
2013-02-23 12:07:00,26.9,22.1,29.98,NNW,346,19.0,19.0,82,0.00,,,0.00,Wunderground v.1.15,2013-02-23 17:07:00,
2013-02-23 12:08:00,26.8,22.0,29.98,WNW,298,19.0,21.0,82,0.00,,,0.00,Wunderground v.1.15,2013-02-23 17:08:00,
2013-02-23 12:11:00,26.8,22.3,29.98,NW,315,11.0,17.0,83,0.00,,,0.00,Wunderground v.1.15,2013-02-23 17:11:00,
2013-02-23 12:12:00,26.7,21.9,29.98,NW,323,18.0,19.0,82,0.00,,,0.00,Wunderground v.1.15,2013-02-23 17:12:00,
2013-02-23 12:13:00,26.7,21.9,29.98,NW,323,15.0,19.0,82,0.00,,,0.00,Wunderground v.1.15,2013-02-23 17:13:00,
2013-02-23 12:16:00,26.6,21.6,29.98,North,355,7.0,19.0,81,0.00,,,0.00,Wunderground v.1.15,2013-02-23 17:16:00,
2013-02-23 12:18:00,26.6,21.6,29.98,West,273,5.0,19.0,81,0.00,,,0.00,Wunderground v.1.15,2013-02-23 17:18:00,
2013-02-23 12:22:00,26.7,21.7,29.98,NW,311,19.0,19.0,81,0.00,,,0.00,Wunderground v.1.15,2013-02-23 17:22:00,
2013-02-23 12:23:00,26.8,21.8,29.98,NNW,346,5.0,19.0,81,0.00,,,0.00,Wunderground v.1.15,2013-02-23 17:23:00,
2013-02-23 12:24:00,26.8,21.8,29.98,NNW,329,9.0,19.0,81,0.00,,,0.00,Wunderground v.1.15,2013-02-23 17:24:00,
2013-02-23 12:27:00,26.7,22.2,29.98,NNW,340,12.0,19.0,83,0.00,,,0.00,Wunderground v.1.15,2013-02-23 17:27:00,
2013-02-23 12:28:00,26.7,22.2,29.98,NNW,331,10.0,19.0,83,0.00,,,0.00,Wunderground v.1.15,2013-02-23 17:28:00,
2013-02-23 12:29:00,26.7,22.2,29.98,NW,315,16.0,19.0,83,0.00,,,0.00,Wunderground v.1.15,2013-02-23 17:29:00,
2013-02-23 12:33:00,26.6,22.4,29.98,North,9,12.0,20.0,84,0.00,,,0.00,Wunderground v.1.15,2013-02-23 17:33:00,
2013-02-23 12:34:00,26.6,22.4,29.98,NW,319,14.0,20.0,84,0.00,,,0.00,Wunderground v.1.15,2013-02-23 17:34:00,
2013-02-23 12:38:00,26.4,22.2,29.98,NNW,346,7.0,20.0,84,0.00,,,0.00,Wunderground v.1.15,2013-02-23 17:38:00,
2013-02-23 12:39:00,26.5,22.3,29.98,NW,313,4.0,20.0,84,0.00,,,0.00,Wunderground v.1.15,2013-02-23 17:39:00,
2013-02-23 12:40:00,26.5,22.3,29.98,SSW,209,4.0,13.0,84,0.00,,,0.00,Wunderground v.1.15,2013-02-23 17:40:00,
2013-02-23 12:43:00,26.6,21.8,29.98,NNW,337,12.0,18.0,82,0.00,,,0.00,Wunderground v.1.15,2013-02-23 17:43:00,
2013-02-23 12:44:00,26.6,21.8,29.98,NW,311,13.0,18.0,82,0.00,,,0.00,Wunderground v.1.15,2013-02-23 17:44:00,
2013-02-23 12:45:00,26.7,21.9,29.98,NNW,333,10.0,18.0,82,0.00,,,0.00,Wunderground v.1.15,2013-02-23 17:45:00,
2013-02-23 12:48:00,26.8,22.0,29.97,NE,42,7.0,18.0,82,0.00,,,0.00,Wunderground v.1.15,2013-02-23 17:48:00,
2013-02-23 12:49:00,26.8,21.8,29.97,North,349,8.0,18.0,81,0.00,,,0.00,Wunderground v.1.15,2013-02-23 17:49:00,
2013-02-23 12:50:00,26.8,21.8,29.97,NNW,333,11.0,15.0,81,0.00,,,0.00,Wunderground v.1.15,2013-02-23 17:50:00,
2013-02-23 12:51:00,26.8,21.8,29.97,NNW,329,14.0,15.0,81,0.00,,,0.00,Wunderground v.1.15,2013-02-23 17:51:00,
2013-02-23 12:53:00,26.9,22.1,29.97,NNW,331,14.0,16.0,82,0.00,,,0.00,Wunderground v.1.15,2013-02-23 17:53:00,
2013-02-23 12:54:00,27.0,21.9,29.97,NW,313,13.0,16.0,81,0.00,,,0.00,Wunderground v.1.15,2013-02-23 17:54:00,
2013-02-23 12:56:00,27.0,21.9,29.97,NW,306,15.0,16.0,81,0.00,,,0.00,Wunderground v.1.15,2013-02-23 17:56:00,
2013-02-23 12:59:00,27.0,21.9,29.97,NNE,15,13.0,16.0,81,0.00,,,0.00,Wunderground v.1.15,2013-02-23 17:59:00,
2013-02-23 13:01:00,26.9,21.8,29.97,NNW,348,9.0,12.0,81,0.00,,,0.00,Wunderground v.1.15,2013-02-23 18:01:00,
2013-02-23 13:04:00,26.9,21.8,29.97,North,9,10.0,16.0,81,0.00,,,0.00,Wunderground v.1.15,2013-02-23 18:04:00,
2013-02-23 13:06:00,26.9,22.1,29.97,NNE,24,3.0,16.0,82,0.00,,,0.00,Wunderground v.1.15,2013-02-23 18:06:00,
2013-02-23 13:07:00,26.9,22.1,29.97,West,264,17.0,17.0,82,0.00,,,0.00,Wunderground v.1.15,2013-02-23 18:07:00,
2013-02-23 13:09:00,26.9,22.1,29.97,WNW,300,10.0,17.0,82,0.00,,,0.00,Wunderground v.1.15,2013-02-23 18:09:00,
2013-02-23 13:10:00,26.9,22.4,29.96,NW,326,10.0,17.0,83,0.00,,,0.00,Wunderground v.1.15,2013-02-23 18:10:00,
2013-02-23 13:11:00,26.8,22.3,29.97,North,355,9.0,11.0,83,0.00,,,0.00,Wunderground v.1.15,2013-02-23 18:11:00,
2013-02-23 13:12:00,26.7,22.2,29.96,NE,44,1.0,11.0,83,0.00,,,0.00,Wunderground v.1.15,2013-02-23 18:12:00,
2013-02-23 13:14:00,26.7,22.2,29.96,NW,324,5.0,15.0,83,0.00,,,0.00,Wunderground v.1.15,2013-02-23 18:14:00,
2013-02-23 13:15:00,26.7,22.2,29.96,South,186,4.0,15.0,83,0.00,,,0.00,Wunderground v.1.15,2013-02-23 18:15:00,
2013-02-23 13:16:00,26.7,22.2,29.96,WSW,245,6.0,15.0,83,0.00,,,0.00,Wunderground v.1.15,2013-02-23 18:16:00,
2013-02-23 13:19:00,26.7,22.2,29.96,NW,310,3.0,15.0,83,0.00,,,0.00,Wunderground v.1.15,2013-02-23 18:19:00,
2013-02-23 13:20:00,26.7,22.2,29.96,NE,34,8.0,8.0,83,0.00,,,0.00,Wunderground v.1.15,2013-02-23 18:20:00,
2013-02-23 13:22:00,26.7,22.2,29.96,WNW,303,11.0,16.0,83,0.00,,,0.00,Wunderground v.1.15,2013-02-23 18:22:00,
2013-02-23 13:24:00,26.8,22.0,29.96,NNW,329,14.0,20.0,82,0.00,,,0.00,Wunderground v.1.15,2013-02-23 18:24:00,
2013-02-23 13:25:00,26.8,21.8,29.96,NNW,333,9.0,20.0,81,0.00,,,0.00,Wunderground v.1.15,2013-02-23 18:25:00,
2013-02-23 13:27:00,26.9,21.6,29.95,NNW,336,15.0,20.0,80,0.00,,,0.00,Wunderground v.1.15,2013-02-23 18:27:00,
2013-02-23 13:29:00,27.0,21.7,29.95,NW,319,16.0,20.0,80,0.00,,,0.00,Wunderground v.1.15,2013-02-23 18:29:00,
2013-02-23 13:30:00,27.0,21.7,29.95,NW,311,16.0,20.0,80,0.00,,,0.00,Wunderground v.1.15,2013-02-23 18:30:00,
2013-02-23 13:31:00,27.0,21.7,29.95,NNW,331,15.0,20.0,80,0.00,,,0.00,Wunderground v.1.15,2013-02-23 18:31:00,
2013-02-23 13:32:00,27.0,21.4,29.95,West,281,12.0,20.0,79,0.00,,,0.00,Wunderground v.1.15,2013-02-23 18:32:00,
2013-02-23 13:35:00,27.0,21.7,29.95,NW,325,18.0,21.0,80,0.00,,,0.00,Wunderground v.1.15,2013-02-23 18:35:00,
2013-02-23 13:36:00,27.0,21.7,29.95,NW,326,15.0,21.0,80,0.00,,,0.00,Wunderground v.1.15,2013-02-23 18:36:00,
2013-02-23 13:37:00,27.0,21.7,29.95,NNW,342,11.0,21.0,80,0.00,,,0.00,Wunderground v.1.15,2013-02-23 18:37:00,
2013-02-23 13:40:00,27.1,22.0,29.96,NNW,346,9.0,15.0,81,0.00,,,0.00,Wunderground v.1.15,2013-02-23 18:40:00,
2013-02-23 13:41:00,27.1,22.0,29.95,WNW,286,10.0,15.0,81,0.00,,,0.00,Wunderground v.1.15,2013-02-23 18:41:00,
2013-02-23 13:43:00,27.1,22.3,29.96,NW,310,13.0,15.0,82,0.00,,,0.00,Wunderground v.1.15,2013-02-23 18:43:00,
2013-02-23 13:46:00,27.1,22.3,29.95,NW,317,14.0,15.0,82,0.00,,,0.00,Wunderground v.1.15,2013-02-23 18:46:00,
2013-02-23 13:48:00,27.1,22.3,29.95,NNW,330,10.0,16.0,82,0.00,,,0.00,Wunderground v.1.15,2013-02-23 18:48:00,
2013-02-23 13:51:00,27.0,21.9,29.95,NNW,328,14.0,17.0,81,0.00,,,0.00,Wunderground v.1.15,2013-02-23 18:51:00,
2013-02-23 13:53:00,26.9,21.8,29.95,NW,323,16.0,17.0,81,0.00,,,0.00,Wunderground v.1.15,2013-02-23 18:53:00,
2013-02-23 13:56:00,26.9,21.8,29.95,NW,321,13.0,17.0,81,0.00,,,0.00,Wunderground v.1.15,2013-02-23 18:56:00,
2013-02-23 13:59:00,26.9,21.8,29.95,NW,319,13.0,17.0,81,0.00,,,0.00,Wunderground v.1.15,2013-02-23 18:59:00,
2013-02-23 14:01:00,26.9,21.8,29.95,NNW,331,12.0,16.0,81,0.00,,,0.00,Wunderground v.1.15,2013-02-23 19:01:00,
2013-02-23 14:02:00,26.9,21.8,29.95,NW,320,13.0,16.0,81,0.00,,,0.00,Wunderground v.1.15,2013-02-23 19:02:00,
2013-02-23 14:05:00,27.0,21.9,29.95,NNW,334,9.0,17.0,81,0.00,,,0.00,Wunderground v.1.15,2013-02-23 19:05:00,
2013-02-23 14:06:00,27.0,21.9,29.95,NW,309,7.0,17.0,81,0.00,,,0.00,Wunderground v.1.15,2013-02-23 19:06:00,
2013-02-23 14:07:00,26.9,21.8,29.95,NNW,331,9.0,17.0,81,0.00,,,0.00,Wunderground v.1.15,2013-02-23 19:07:00,
2013-02-23 14:10:00,26.9,21.8,29.95,NW,324,10.0,13.0,81,0.00,,,0.00,Wunderground v.1.15,2013-02-23 19:10:00,
2013-02-23 14:11:00,26.9,21.8,29.95,WNW,297,10.0,13.0,81,0.00,,,0.00,Wunderground v.1.15,2013-02-23 19:11:00,
2013-02-23 14:12:00,26.9,22.1,29.95,NNW,328,4.0,13.0,82,0.00,,,0.00,Wunderground v.1.15,2013-02-23 19:12:00,
2013-02-23 14:15:00,26.9,22.1,29.95,NNW,340,11.0,15.0,82,0.00,,,0.00,Wunderground v.1.15,2013-02-23 19:15:00,
2013-02-23 14:16:00,26.9,22.1,29.95,NW,313,12.0,15.0,82,0.00,,,0.00,Wunderground v.1.15,2013-02-23 19:16:00,
2013-02-23 14:18:00,26.9,22.1,29.94,NW,314,19.0,19.0,82,0.00,,,0.00,Wunderground v.1.15,2013-02-23 19:18:00,
2013-02-23 14:21:00,26.9,21.8,29.94,NW,325,15.0,17.0,81,0.00,,,0.00,Wunderground v.1.15,2013-02-23 19:21:00,
2013-02-23 14:23:00,26.9,21.8,29.94,NNW,331,15.0,17.0,81,0.00,,,0.00,Wunderground v.1.15,2013-02-23 19:23:00,
2013-02-23 14:26:00,26.9,21.8,29.94,NW,314,12.0,17.0,81,0.00,,,0.00,Wunderground v.1.15,2013-02-23 19:26:00,
2013-02-23 14:27:00,26.9,21.8,29.94,NNW,331,7.0,17.0,81,0.00,,,0.00,Wunderground v.1.15,2013-02-23 19:27:00,
2013-02-23 14:28:00,26.9,22.1,29.94,NW,315,12.0,17.0,82,0.00,,,0.00,Wunderground v.1.15,2013-02-23 19:28:00,
2013-02-23 14:31:00,26.9,22.1,29.94,NNW,340,10.0,14.0,82,0.00,,,0.00,Wunderground v.1.15,2013-02-23 19:31:00,
2013-02-23 14:32:00,26.9,22.1,29.94,NNW,342,11.0,14.0,82,0.00,,,0.00,Wunderground v.1.15,2013-02-23 19:32:00,
2013-02-23 14:33:00,27.0,22.2,29.94,NW,307,14.0,18.0,82,0.00,,,0.00,Wunderground v.1.15,2013-02-23 19:33:00,
2013-02-23 14:37:00,27.0,22.2,29.94,NW,317,12.0,19.0,82,0.00,,,0.00,Wunderground v.1.15,2013-02-23 19:37:00,
2013-02-23 14:38:00,27.0,22.2,29.95,NNE,14,7.0,19.0,82,0.00,,,0.00,Wunderground v.1.15,2013-02-23 19:38:00,
2013-02-23 14:42:00,27.0,22.5,29.94,West,268,7.0,13.0,83,0.00,,,0.00,Wunderground v.1.15,2013-02-23 19:42:00,
2013-02-23 14:43:00,27.0,22.5,29.95,NW,309,14.0,16.0,83,0.00,,,0.00,Wunderground v.1.15,2013-02-23 19:43:00,
2013-02-23 14:47:00,27.0,22.2,29.94,NW,310,17.0,20.0,82,0.00,,,0.00,Wunderground v.1.15,2013-02-23 19:47:00,
2013-02-23 14:48:00,27.0,22.2,29.94,NNW,331,12.0,20.0,82,0.00,,,0.00,Wunderground v.1.15,2013-02-23 19:48:00,
2013-02-23 14:52:00,26.9,22.1,29.95,NNW,342,11.0,14.0,82,0.00,,,0.00,Wunderground v.1.15,2013-02-23 19:52:00,
2013-02-23 14:53:00,26.9,22.1,29.95,North,355,10.0,14.0,82,0.00,,,0.00,Wunderground v.1.15,2013-02-23 19:53:00,
2013-02-23 14:58:00,26.9,22.1,29.94,NW,314,14.0,19.0,82,0.00,,,0.00,Wunderground v.1.15,2013-02-23 19:58:00,
2013-02-23 15:03:00,27.0,22.2,29.94,NNW,327,17.0,17.0,82,0.00,,,0.00,Wunderground v.1.15,2013-02-23 20:03:00,
2013-02-23 15:04:00,27.0,21.9,29.95,NW,320,15.0,17.0,81,0.00,,,0.00,Wunderground v.1.15,2013-02-23 20:04:00,
2013-02-23 15:08:00,27.0,21.9,29.95,NW,320,15.0,21.0,81,0.00,,,0.00,Wunderground v.1.15,2013-02-23 20:08:00,
2013-02-23 15:09:00,27.0,21.7,29.95,NNW,332,12.0,21.0,80,0.00,,,0.00,Wunderground v.1.15,2013-02-23 20:09:00,
2013-02-23 15:13:00,27.0,22.2,29.95,NW,319,16.0,19.0,82,0.00,,,0.00,Wunderground v.1.15,2013-02-23 20:13:00,
2013-02-23 15:14:00,27.0,22.2,29.95,NW,317,16.0,19.0,82,0.00,,,0.00,Wunderground v.1.15,2013-02-23 20:14:00,
2013-02-23 15:18:00,27.0,22.2,29.95,NW,321,14.0,21.0,82,0.00,,,0.00,Wunderground v.1.15,2013-02-23 20:18:00,
2013-02-23 15:19:00,26.9,22.1,29.95,NW,322,11.0,21.0,82,0.00,,,0.00,Wunderground v.1.15,2013-02-23 20:19:00,
2013-02-23 15:23:00,26.8,22.3,29.95,WNW,291,17.0,19.0,83,0.00,,,0.00,Wunderground v.1.15,2013-02-23 20:23:00,
2013-02-23 15:24:00,26.8,22.3,29.95,WNW,292,15.0,19.0,83,0.00,,,0.00,Wunderground v.1.15,2013-02-23 20:24:00,
2013-02-23 15:29:00,26.8,21.5,29.95,NW,319,16.0,19.0,80,0.00,,,0.00,Wunderground v.1.15,2013-02-23 20:29:00,
2013-02-23 15:30:00,26.9,21.8,29.95,NW,315,14.0,14.0,81,0.00,,,0.00,Wunderground v.1.15,2013-02-23 20:30:00,
2013-02-23 15:34:00,27.0,21.9,29.95,WNW,302,19.0,21.0,81,0.00,,,0.00,Wunderground v.1.15,2013-02-23 20:34:00,
2013-02-23 15:35:00,26.9,21.6,29.95,NW,323,17.0,21.0,80,0.00,,,0.00,Wunderground v.1.15,2013-02-23 20:35:00,
2013-02-23 15:39:00,26.9,21.6,29.95,NNW,340,12.0,21.0,80,0.00,,,0.00,Wunderground v.1.15,2013-02-23 20:39:00,
2013-02-23 15:40:00,26.9,21.6,29.95,NW,321,16.0,16.0,80,0.00,,,0.00,Wunderground v.1.15,2013-02-23 20:40:00,
2013-02-23 15:41:00,26.8,21.5,29.95,NW,310,16.0,17.0,80,0.00,,,0.00,Wunderground v.1.15,2013-02-23 20:41:00,
2013-02-23 15:44:00,26.8,21.5,29.95,NW,322,5.0,18.0,80,0.00,,,0.00,Wunderground v.1.15,2013-02-23 20:44:00,
2013-02-23 15:45:00,26.8,21.5,29.95,NW,319,12.0,18.0,80,0.00,,,0.00,Wunderground v.1.15,2013-02-23 20:45:00,
2013-02-23 15:46:00,26.7,21.1,29.95,NW,317,14.0,18.0,79,0.00,,,0.00,Wunderground v.1.15,2013-02-23 20:46:00,
2013-02-23 15:49:00,26.8,21.2,29.95,NW,314,15.0,18.0,79,0.00,,,0.00,Wunderground v.1.15,2013-02-23 20:49:00,
2013-02-23 15:51:00,26.8,21.5,29.95,NW,313,15.0,17.0,80,0.00,,,0.00,Wunderground v.1.15,2013-02-23 20:51:00,
2013-02-23 15:54:00,26.7,21.1,29.95,NW,311,14.0,19.0,79,0.00,,,0.00,Wunderground v.1.15,2013-02-23 20:54:00,
2013-02-23 15:56:00,26.7,21.1,29.95,NNW,327,14.0,19.0,79,0.00,,,0.00,Wunderground v.1.15,2013-02-23 20:56:00,
2013-02-23 15:59:00,26.6,20.7,29.95,NW,319,12.0,19.0,78,0.00,,,0.00,Wunderground v.1.15,2013-02-23 20:59:00,
2013-02-23 16:01:00,26.6,21.0,29.95,North,355,12.0,17.0,79,0.00,,,0.00,Wunderground v.1.15,2013-02-23 21:01:00,
2013-02-23 16:02:00,26.7,21.1,29.96,NNW,327,9.0,17.0,79,0.00,,,0.00,Wunderground v.1.15,2013-02-23 21:02:00,
2013-02-23 16:04:00,26.7,21.1,29.95,WNW,286,14.0,17.0,79,0.00,,,0.00,Wunderground v.1.15,2013-02-23 21:04:00,
2013-02-23 16:06:00,26.7,21.1,29.95,NW,316,15.0,17.0,79,0.00,,,0.00,Wunderground v.1.15,2013-02-23 21:06:00,
2013-02-23 16:07:00,26.7,21.1,29.95,NW,313,15.0,17.0,79,0.00,,,0.00,Wunderground v.1.15,2013-02-23 21:07:00,
2013-02-23 16:09:00,26.7,21.4,29.95,NNW,330,22.0,22.0,80,0.00,,,0.00,Wunderground v.1.15,2013-02-23 21:09:00,
2013-02-23 16:11:00,26.9,21.8,29.95,NW,321,18.0,22.0,81,0.00,,,0.00,Wunderground v.1.15,2013-02-23 21:11:00,
2013-02-23 16:12:00,26.9,21.8,29.95,NW,317,19.0,22.0,81,0.00,,,0.00,Wunderground v.1.15,2013-02-23 21:12:00,
2013-02-23 16:15:00,26.9,21.3,29.95,NW,319,17.0,22.0,79,0.00,,,0.00,Wunderground v.1.15,2013-02-23 21:15:00,
2013-02-23 16:17:00,26.9,21.6,29.96,NW,321,14.0,22.0,80,0.00,,,0.00,Wunderground v.1.15,2013-02-23 21:17:00,
2013-02-23 16:20:00,26.8,21.2,29.96,NW,325,13.0,22.0,79,0.00,,,0.00,Wunderground v.1.15,2013-02-23 21:20:00,
2013-02-23 16:21:00,26.8,21.2,29.95,NW,315,16.0,17.0,79,0.00,,,0.00,Wunderground v.1.15,2013-02-23 21:21:00,
2013-02-23 16:22:00,26.8,21.2,29.95,NNW,329,13.0,18.0,79,0.00,,,0.00,Wunderground v.1.15,2013-02-23 21:22:00,
2013-02-23 16:23:00,26.8,21.2,29.96,NW,321,14.0,18.0,79,0.00,,,0.00,Wunderground v.1.15,2013-02-23 21:23:00,
2013-02-23 16:25:00,26.7,21.1,29.96,NNW,338,13.0,18.0,79,0.00,,,0.00,Wunderground v.1.15,2013-02-23 21:25:00,
2013-02-23 16:26:00,26.8,21.5,29.95,WNW,290,9.0,18.0,80,0.00,,,0.00,Wunderground v.1.15,2013-02-23 21:26:00,
2013-02-23 16:27:00,26.8,21.2,29.95,NW,307,10.0,18.0,79,0.00,,,0.00,Wunderground v.1.15,2013-02-23 21:27:00,
2013-02-23 16:28:00,26.8,21.5,29.95,NNW,336,12.0,18.0,80,0.00,,,0.00,Wunderground v.1.15,2013-02-23 21:28:00,
2013-02-23 16:30:00,26.8,21.5,29.95,NW,323,13.0,13.0,80,0.00,,,0.00,Wunderground v.1.15,2013-02-23 21:30:00,
2013-02-23 16:32:00,26.8,21.5,29.95,NW,317,12.0,17.0,80,0.00,,,0.00,Wunderground v.1.15,2013-02-23 21:32:00,
2013-02-23 16:33:00,26.9,21.6,29.95,NNW,327,14.0,18.0,80,0.00,,,0.00,Wunderground v.1.15,2013-02-23 21:33:00,
2013-02-23 16:35:00,26.9,21.6,29.95,WNW,300,10.0,18.0,80,0.00,,,0.00,Wunderground v.1.15,2013-02-23 21:35:00,
2013-02-23 16:37:00,26.8,21.5,29.95,NNW,342,10.0,18.0,80,0.00,,,0.00,Wunderground v.1.15,2013-02-23 21:37:00,
2013-02-23 16:38:00,26.8,21.5,29.95,NW,316,8.0,18.0,80,0.00,,,0.00,Wunderground v.1.15,2013-02-23 21:38:00,
2013-02-23 16:40:00,26.8,21.2,29.95,NW,309,15.0,15.0,79,0.00,,,0.00,Wunderground v.1.15,2013-02-23 21:40:00,
2013-02-23 16:42:00,26.8,21.5,29.95,NW,323,14.0,17.0,80,0.00,,,0.00,Wunderground v.1.15,2013-02-23 21:42:00,
2013-02-23 16:43:00,26.8,21.2,29.95,NW,314,14.0,17.0,79,0.00,,,0.00,Wunderground v.1.15,2013-02-23 21:43:00,
2013-02-23 16:46:00,26.8,21.2,29.95,WNW,303,9.0,17.0,79,0.00,,,0.00,Wunderground v.1.15,2013-02-23 21:46:00,
2013-02-23 16:47:00,26.7,21.1,29.95,NW,312,6.0,17.0,79,0.00,,,0.00,Wunderground v.1.15,2013-02-23 21:47:00,
2013-02-23 16:49:00,26.7,21.1,29.95,NW,321,11.0,17.0,79,0.00,,,0.00,Wunderground v.1.15,2013-02-23 21:49:00,
2013-02-23 16:51:00,26.8,21.5,29.95,NW,311,15.0,18.0,80,0.00,,,0.00,Wunderground v.1.15,2013-02-23 21:51:00,
2013-02-23 16:52:00,26.9,21.3,29.95,NW,313,12.0,18.0,79,0.00,,,0.00,Wunderground v.1.15,2013-02-23 21:52:00,
2013-02-23 16:54:00,26.9,21.3,29.95,NW,317,15.0,18.0,79,0.00,,,0.00,Wunderground v.1.15,2013-02-23 21:54:00,
2013-02-23 16:55:00,26.9,21.3,29.95,NW,319,11.0,18.0,79,0.00,,,0.00,Wunderground v.1.15,2013-02-23 21:55:00,
2013-02-23 16:56:00,26.9,21.3,29.95,WNW,296,15.0,18.0,79,0.00,,,0.00,Wunderground v.1.15,2013-02-23 21:56:00,
2013-02-23 16:58:00,27.0,21.7,29.95,NW,323,14.0,18.0,80,0.00,,,0.00,Wunderground v.1.15,2013-02-23 21:58:00,
2013-02-23 16:59:00,27.0,21.7,29.95,WNW,296,15.0,18.0,80,0.00,,,0.00,Wunderground v.1.15,2013-02-23 21:59:00,
2013-02-23 17:00:00,27.0,21.7,29.95,NW,322,13.0,15.0,80,0.00,,,0.00,Wunderground v.1.15,2013-02-23 22:00:00,
2013-02-23 17:02:00,27.1,22.0,29.95,NW,326,13.0,18.0,81,0.00,,,0.00,Wunderground v.1.15,2013-02-23 22:02:00,
2013-02-23 17:03:00,27.1,22.3,29.95,NW,323,19.0,21.0,82,0.00,,,0.00,Wunderground v.1.15,2013-02-23 22:03:00,
2013-02-23 17:05:00,27.1,21.7,29.95,NW,319,17.0,21.0,80,0.00,,,0.00,Wunderground v.1.15,2013-02-23 22:05:00,
2013-02-23 17:07:00,27.1,21.5,29.95,NW,310,15.0,21.0,79,0.00,,,0.00,Wunderground v.1.15,2013-02-23 22:07:00,
2013-02-23 17:08:00,27.0,21.4,29.95,NNW,331,18.0,21.0,79,0.00,,,0.00,Wunderground v.1.15,2013-02-23 22:08:00,
2013-02-23 17:10:00,27.0,21.4,29.95,NW,326,16.0,17.0,79,0.00,,,0.00,Wunderground v.1.15,2013-02-23 22:10:00,
2013-02-23 17:12:00,27.1,21.7,29.95,NW,323,20.0,20.0,80,0.00,,,0.00,Wunderground v.1.15,2013-02-23 22:12:00,
2013-02-23 17:13:00,27.1,21.5,29.96,NW,319,11.0,20.0,79,0.00,,,0.00,Wunderground v.1.15,2013-02-23 22:13:00,
2013-02-23 17:15:00,27.0,21.4,29.96,North,355,12.0,20.0,79,0.00,,,0.00,Wunderground v.1.15,2013-02-23 22:15:00,
2013-02-23 17:16:00,27.0,21.4,29.96,NW,318,13.0,20.0,79,0.00,,,0.00,Wunderground v.1.15,2013-02-23 22:16:00,
2013-02-23 17:17:00,27.0,21.4,29.96,NNW,332,12.0,20.0,79,0.00,,,0.00,Wunderground v.1.15,2013-02-23 22:17:00,
2013-02-23 17:18:00,27.0,21.4,29.96,WNW,294,12.0,20.0,79,0.00,,,0.00,Wunderground v.1.15,2013-02-23 22:18:00,
2013-02-23 17:21:00,27.0,21.4,29.96,NNW,334,15.0,17.0,79,0.00,,,0.00,Wunderground v.1.15,2013-02-23 22:21:00,
2013-02-23 17:22:00,27.0,21.7,29.96,NW,317,15.0,18.0,80,0.00,,,0.00,Wunderground v.1.15,2013-02-23 22:22:00,
2013-02-23 17:23:00,27.0,21.1,29.95,NNW,328,16.0,18.0,78,0.00,,,0.00,Wunderground v.1.15,2013-02-23 22:23:00,
2013-02-23 17:26:00,27.1,21.5,29.95,NW,317,15.0,19.0,79,0.00,,,0.00,Wunderground v.1.15,2013-02-23 22:26:00,
2013-02-23 17:27:00,27.1,21.2,29.95,NW,313,14.0,19.0,78,0.00,,,0.00,Wunderground v.1.15,2013-02-23 22:27:00,
2013-02-23 17:29:00,27.1,21.2,29.96,NNW,331,13.0,19.0,78,0.00,,,0.00,Wunderground v.1.15,2013-02-23 22:29:00,
2013-02-23 17:31:00,27.1,21.2,29.96,NW,317,13.0,15.0,78,0.00,,,0.00,Wunderground v.1.15,2013-02-23 22:31:00,
2013-02-23 17:32:00,27.1,21.2,29.96,NW,319,14.0,16.0,78,0.00,,,0.00,Wunderground v.1.15,2013-02-23 22:32:00,
2013-02-23 17:34:00,27.1,21.2,29.96,NW,321,13.0,16.0,78,0.00,,,0.00,Wunderground v.1.15,2013-02-23 22:34:00,
2013-02-23 17:37:00,27.2,21.5,29.96,NW,319,16.0,18.0,79,0.00,,,0.00,Wunderground v.1.15,2013-02-23 22:37:00,
2013-02-23 17:40:00,27.2,21.2,29.96,NW,322,15.0,20.0,78,0.00,,,0.00,Wunderground v.1.15,2013-02-23 22:40:00,
2013-02-23 17:42:00,27.2,21.2,29.96,NW,315,13.0,18.0,78,0.00,,,0.00,Wunderground v.1.15,2013-02-23 22:42:00,
2013-02-23 17:43:00,27.2,21.2,29.96,NW,319,16.0,18.0,78,0.00,,,0.00,Wunderground v.1.15,2013-02-23 22:43:00,
2013-02-23 17:45:00,27.2,21.2,29.96,North,355,12.0,19.0,78,0.00,,,0.00,Wunderground v.1.15,2013-02-23 22:45:00,
2013-02-23 17:47:00,27.1,21.2,29.96,NNW,345,9.0,19.0,78,0.00,,,0.00,Wunderground v.1.15,2013-02-23 22:47:00,
2013-02-23 17:48:00,27.1,21.2,29.96,NNW,341,8.0,19.0,78,0.00,,,0.00,Wunderground v.1.15,2013-02-23 22:48:00,
2013-02-23 17:50:00,27.0,21.1,29.96,NW,321,11.0,13.0,78,0.00,,,0.00,Wunderground v.1.15,2013-02-23 22:50:00,
2013-02-23 17:52:00,27.0,21.4,29.97,West,260,7.0,14.0,79,0.00,,,0.00,Wunderground v.1.15,2013-02-23 22:52:00,
2013-02-23 17:53:00,27.0,21.4,29.97,NW,312,13.0,14.0,79,0.00,,,0.00,Wunderground v.1.15,2013-02-23 22:53:00,
2013-02-23 17:55:00,26.9,21.0,29.97,NNW,331,10.0,15.0,78,0.00,,,0.00,Wunderground v.1.15,2013-02-23 22:55:00,
2013-02-23 17:58:00,27.0,21.4,29.97,NNW,338,11.0,17.0,79,0.00,,,0.00,Wunderground v.1.15,2013-02-23 22:58:00,
2013-02-23 17:59:00,27.0,21.4,29.97,NW,317,13.0,17.0,79,0.00,,,0.00,Wunderground v.1.15,2013-02-23 22:59:00,
2013-02-23 18:01:00,27.0,21.4,29.97,NW,317,10.0,15.0,79,0.00,,,0.00,Wunderground v.1.15,2013-02-23 23:01:00,
2013-02-23 18:03:00,26.9,21.0,29.97,NE,34,3.0,15.0,78,0.00,,,0.00,Wunderground v.1.15,2013-02-23 23:03:00,
2013-02-23 18:04:00,26.9,21.0,29.97,NNE,32,2.0,15.0,78,0.00,,,0.00,Wunderground v.1.15,2013-02-23 23:04:00,
2013-02-23 18:06:00,26.9,21.3,29.97,NW,317,13.0,15.0,79,0.00,,,0.00,Wunderground v.1.15,2013-02-23 23:06:00,
2013-02-23 18:09:00,27.0,21.7,29.96,NNW,339,11.0,17.0,80,0.00,,,0.00,Wunderground v.1.15,2013-02-23 23:09:00,
2013-02-23 18:11:00,27.1,21.5,29.96,NW,315,14.0,16.0,79,0.00,,,0.00,Wunderground v.1.15,2013-02-23 23:11:00,
2013-02-23 18:14:00,27.1,21.5,29.97,NW,319,11.0,16.0,79,0.00,,,0.00,Wunderground v.1.15,2013-02-23 23:14:00,
2013-02-23 18:16:00,27.1,21.7,29.97,NNW,330,6.0,16.0,80,0.00,,,0.00,Wunderground v.1.15,2013-02-23 23:16:00,
2013-02-23 18:19:00,27.0,21.7,29.97,NNW,330,11.0,16.0,80,0.00,,,0.00,Wunderground v.1.15,2013-02-23 23:19:00,
2013-02-23 18:20:00,27.0,21.7,29.97,NNW,333,9.0,10.0,80,0.00,,,0.00,Wunderground v.1.15,2013-02-23 23:20:00,
2013-02-23 18:22:00,27.0,21.9,29.97,NW,308,12.0,16.0,81,0.00,,,0.00,Wunderground v.1.15,2013-02-23 23:22:00,
2013-02-23 18:24:00,27.0,21.9,29.97,NNW,327,9.0,16.0,81,0.00,,,0.00,Wunderground v.1.15,2013-02-23 23:24:00,
2013-02-23 18:25:00,27.0,21.9,29.97,NW,322,7.0,16.0,81,0.00,,,0.00,Wunderground v.1.15,2013-02-23 23:25:00,
2013-02-23 18:27:00,27.0,21.9,29.97,NW,321,2.0,16.0,81,0.00,,,0.00,Wunderground v.1.15,2013-02-23 23:27:00,
2013-02-23 18:29:00,26.9,21.8,29.97,NW,317,11.0,16.0,81,0.00,,,0.00,Wunderground v.1.15,2013-02-23 23:29:00,
2013-02-23 18:30:00,26.9,21.8,29.97,North,360,12.0,15.0,81,0.00,,,0.00,Wunderground v.1.15,2013-02-23 23:30:00,
2013-02-23 18:31:00,26.9,21.8,29.97,NW,307,12.0,15.0,81,0.00,,,0.00,Wunderground v.1.15,2013-02-23 23:31:00,
2013-02-23 18:32:00,26.9,21.6,29.97,NW,325,11.0,15.0,80,0.00,,,0.00,Wunderground v.1.15,2013-02-23 23:32:00,
2013-02-23 18:34:00,27.0,21.9,29.97,NNW,340,9.0,15.0,81,0.00,,,0.00,Wunderground v.1.15,2013-02-23 23:34:00,
2013-02-23 18:35:00,27.0,21.9,29.97,NW,311,9.0,15.0,81,0.00,,,0.00,Wunderground v.1.15,2013-02-23 23:35:00,
2013-02-23 18:36:00,27.0,21.9,29.97,SW,226,3.0,15.0,81,0.00,,,0.00,Wunderground v.1.15,2013-02-23 23:36:00,
2013-02-23 18:37:00,27.0,21.9,29.97,NNW,348,4.0,15.0,81,0.00,,,0.00,Wunderground v.1.15,2013-02-23 23:37:00,
2013-02-23 18:40:00,26.9,21.8,29.97,NNW,334,6.0,9.0,81,0.00,,,0.00,Wunderground v.1.15,2013-02-23 23:40:00,
2013-02-23 18:41:00,26.9,21.8,29.97,North,349,7.0,10.0,81,0.00,,,0.00,Wunderground v.1.15,2013-02-23 23:41:00,
2013-02-23 18:42:00,26.9,21.8,29.97,West,264,12.0,12.0,81,0.00,,,0.00,Wunderground v.1.15,2013-02-23 23:42:00,
2013-02-23 18:45:00,26.9,21.8,29.97,NW,317,15.0,16.0,81,0.00,,,0.00,Wunderground v.1.15,2013-02-23 23:45:00,
2013-02-23 18:46:00,26.9,22.1,29.97,NW,315,18.0,21.0,82,0.00,,,0.00,Wunderground v.1.15,2013-02-23 23:46:00,
2013-02-23 18:48:00,27.0,21.9,29.97,NW,314,13.0,21.0,81,0.00,,,0.00,Wunderground v.1.15,2013-02-23 23:48:00,
2013-02-23 18:51:00,27.0,21.7,29.97,NNW,330,12.0,15.0,80,0.00,,,0.00,Wunderground v.1.15,2013-02-23 23:51:00,
2013-02-23 18:53:00,27.0,21.7,29.97,NW,325,2.0,15.0,80,0.00,,,0.00,Wunderground v.1.15,2013-02-23 23:53:00,
2013-02-23 18:56:00,27.0,21.9,29.97,NW,307,12.0,17.0,81,0.00,,,0.00,Wunderground v.1.15,2013-02-23 23:56:00,
2013-02-23 18:57:00,27.0,21.9,29.97,NNW,347,8.0,17.0,81,0.00,,,0.00,Wunderground v.1.15,2013-02-23 23:57:00,
2013-02-23 18:58:00,27.1,22.0,29.98,NNW,338,16.0,17.0,81,0.00,,,0.00,Wunderground v.1.15,2013-02-23 23:58:00,
2013-02-23 19:02:00,27.1,22.0,29.98,North,360,10.0,11.0,81,0.00,,,0.00,Wunderground v.1.15,2013-02-24 00:02:00,
2013-02-23 19:03:00,27.1,22.0,29.98,West,267,3.0,11.0,81,0.00,,,0.00,Wunderground v.1.15,2013-02-24 00:03:00,
2013-02-23 19:07:00,27.0,21.9,29.98,NW,307,15.0,15.0,81,0.00,,,0.00,Wunderground v.1.15,2013-02-24 00:07:00,
2013-02-23 19:08:00,27.0,21.9,29.98,NNW,342,10.0,15.0,81,0.00,,,0.00,Wunderground v.1.15,2013-02-24 00:08:00,
2013-02-23 19:12:00,27.1,22.3,29.98,NW,311,13.0,14.0,82,0.00,,,0.00,Wunderground v.1.15,2013-02-24 00:12:00,
2013-02-23 19:14:00,27.1,22.0,29.98,North,360,10.0,15.0,81,0.00,,,0.00,Wunderground v.1.15,2013-02-24 00:14:00,
2013-02-23 19:17:00,27.0,21.9,29.98,East,84,4.0,15.0,81,0.00,,,0.00,Wunderground v.1.15,2013-02-24 00:17:00,
2013-02-23 19:18:00,27.0,21.9,29.99,NNW,335,10.0,15.0,81,0.00,,,0.00,Wunderground v.1.15,2013-02-24 00:18:00,
2013-02-23 19:19:00,27.0,22.2,29.98,WNW,298,11.0,15.0,82,0.00,,,0.00,Wunderground v.1.15,2013-02-24 00:19:00,
2013-02-23 19:22:00,27.0,22.2,29.99,SW,215,1.0,14.0,82,0.00,,,0.00,Wunderground v.1.15,2013-02-24 00:22:00,
2013-02-23 19:23:00,27.0,22.2,29.99,NW,321,6.0,14.0,82,0.00,,,0.00,Wunderground v.1.15,2013-02-24 00:23:00,
2013-02-23 19:24:00,27.0,22.2,29.99,NW,321,13.0,14.0,82,0.00,,,0.00,Wunderground v.1.15,2013-02-24 00:24:00,
2013-02-23 19:28:00,27.0,21.9,29.99,NNW,348,5.0,14.0,81,0.00,,,0.00,Wunderground v.1.15,2013-02-24 00:28:00,
2013-02-23 19:29:00,27.0,21.9,29.99,North,349,6.0,14.0,81,0.00,,,0.00,Wunderground v.1.15,2013-02-24 00:29:00,
2013-02-23 19:33:00,27.1,22.0,29.99,NNW,348,8.0,15.0,81,0.00,,,0.00,Wunderground v.1.15,2013-02-24 00:33:00,
2013-02-23 19:34:00,27.0,21.9,29.99,NNW,345,7.0,15.0,81,0.00,,,0.00,Wunderground v.1.15,2013-02-24 00:34:00,
2013-02-23 19:38:00,27.1,22.3,29.99,NNE,17,9.0,15.0,82,0.00,,,0.00,Wunderground v.1.15,2013-02-24 00:38:00,
2013-02-23 19:40:00,27.1,22.3,29.99,NW,316,11.0,11.0,82,0.00,,,0.00,Wunderground v.1.15,2013-02-24 00:40:00,
2013-02-23 19:43:00,27.2,22.1,29.98,NNW,327,15.0,17.0,81,0.00,,,0.00,Wunderground v.1.15,2013-02-24 00:43:00,
2013-02-23 19:44:00,27.2,22.1,29.99,NNW,328,12.0,17.0,81,0.00,,,0.00,Wunderground v.1.15,2013-02-24 00:44:00,
2013-02-23 19:45:00,27.2,22.4,29.99,NW,316,12.0,17.0,82,0.00,,,0.00,Wunderground v.1.15,2013-02-24 00:45:00,
2013-02-23 19:49:00,27.2,22.4,29.99,NNW,340,12.0,17.0,82,0.00,,,0.00,Wunderground v.1.15,2013-02-24 00:49:00,
2013-02-23 19:50:00,27.2,22.4,29.99,North,355,10.0,12.0,82,0.00,,,0.00,Wunderground v.1.15,2013-02-24 00:50:00,
2013-02-23 19:54:00,27.1,22.0,29.99,North,355,6.0,15.0,81,0.00,,,0.00,Wunderground v.1.15,2013-02-24 00:54:00,
2013-02-23 19:55:00,27.1,22.0,29.99,North,350,3.0,15.0,81,0.00,,,0.00,Wunderground v.1.15,2013-02-24 00:55:00,
2013-02-23 19:59:00,27.1,22.3,29.99,NW,309,15.0,15.0,82,0.00,,,0.00,Wunderground v.1.15,2013-02-24 00:59:00,
2013-02-23 20:00:00,27.2,22.4,29.99,NW,322,13.0,14.0,82,0.00,,,0.00,Wunderground v.1.15,2013-02-24 01:00:00,
2013-02-23 20:04:00,27.3,22.8,29.99,North,9,7.0,19.0,83,0.00,,,0.00,Wunderground v.1.15,2013-02-24 01:04:00,
2013-02-23 20:05:00,27.3,22.8,29.99,NNW,327,9.0,19.0,83,0.00,,,0.00,Wunderground v.1.15,2013-02-24 01:05:00,
2013-02-23 20:09:00,27.2,22.4,29.99,NNW,344,5.0,19.0,82,0.00,,,0.00,Wunderground v.1.15,2013-02-24 01:09:00,
2013-02-23 20:10:00,27.2,22.4,29.99,NW,313,12.0,13.0,82,0.00,,,0.00,Wunderground v.1.15,2013-02-24 01:10:00,
2013-02-23 20:11:00,27.1,22.3,29.99,NNW,335,10.0,15.0,82,0.00,,,0.00,Wunderground v.1.15,2013-02-24 01:11:00,
2013-02-23 20:15:00,27.2,22.7,29.99,NNW,346,9.0,18.0,83,0.00,,,0.00,Wunderground v.1.15,2013-02-24 01:15:00,
2013-02-23 20:16:00,27.2,22.7,29.99,NW,311,12.0,18.0,83,0.00,,,0.00,Wunderground v.1.15,2013-02-24 01:16:00,
2013-02-23 20:17:00,27.2,22.7,29.99,NW,309,12.0,18.0,83,0.00,,,0.00,Wunderground v.1.15,2013-02-24 01:17:00,
2013-02-23 20:20:00,27.1,22.3,29.99,North,355,9.0,11.0,82,0.00,,,0.00,Wunderground v.1.15,2013-02-24 01:20:00,
2013-02-23 20:21:00,27.1,22.3,29.99,NNW,329,12.0,16.0,82,0.00,,,0.00,Wunderground v.1.15,2013-02-24 01:21:00,
2013-02-23 20:22:00,27.1,22.6,29.99,NW,325,16.0,20.0,83,0.00,,,0.00,Wunderground v.1.15,2013-02-24 01:22:00,
2013-02-23 20:25:00,27.1,22.6,29.99,WNW,292,11.0,20.0,83,0.00,,,0.00,Wunderground v.1.15,2013-02-24 01:25:00,
2013-02-23 20:26:00,27.1,22.6,29.99,NNW,329,16.0,20.0,83,0.00,,,0.00,Wunderground v.1.15,2013-02-24 01:26:00,
2013-02-23 20:27:00,27.2,22.7,29.99,NNW,331,15.0,20.0,83,0.00,,,0.00,Wunderground v.1.15,2013-02-24 01:27:00,
2013-02-23 20:30:00,27.2,22.4,29.99,NW,309,15.0,15.0,82,0.00,,,0.00,Wunderground v.1.15,2013-02-24 01:30:00,
2013-02-23 20:31:00,27.2,22.4,29.99,NW,325,18.0,18.0,82,0.00,,,0.00,Wunderground v.1.15,2013-02-24 01:31:00,
2013-02-23 20:32:00,27.3,22.5,29.99,NW,311,18.0,18.0,82,0.00,,,0.00,Wunderground v.1.15,2013-02-24 01:32:00,
2013-02-23 20:33:00,27.3,22.8,29.99,NW,317,14.0,18.0,83,0.00,,,0.00,Wunderground v.1.15,2013-02-24 01:33:00,
2013-02-23 20:35:00,27.2,22.7,29.99,NW,304,11.0,18.0,83,0.00,,,0.00,Wunderground v.1.15,2013-02-24 01:35:00,
2013-02-23 20:36:00,27.2,22.7,29.99,NW,325,14.0,18.0,83,0.00,,,0.00,Wunderground v.1.15,2013-02-24 01:36:00,
2013-02-23 20:37:00,27.2,22.4,29.99,NW,315,12.0,18.0,82,0.00,,,0.00,Wunderground v.1.15,2013-02-24 01:37:00,
2013-02-23 20:38:00,27.2,22.4,29.99,NW,317,10.0,18.0,82,0.00,,,0.00,Wunderground v.1.15,2013-02-24 01:38:00,
2013-02-23 20:41:00,27.2,22.1,29.99,NNW,329,17.0,17.0,81,0.00,,,0.00,Wunderground v.1.15,2013-02-24 01:41:00,
2013-02-23 20:43:00,27.2,21.8,29.99,NW,308,14.0,17.0,80,0.00,,,0.00,Wunderground v.1.15,2013-02-24 01:43:00,
2013-02-23 20:46:00,27.2,21.8,29.99,NW,309,17.0,19.0,80,0.00,,,0.00,Wunderground v.1.15,2013-02-24 01:46:00,
2013-02-23 20:48:00,27.2,21.8,29.99,NW,317,13.0,19.0,80,0.00,,,0.00,Wunderground v.1.15,2013-02-24 01:48:00,
2013-02-23 20:51:00,27.3,21.9,29.99,NW,318,15.0,17.0,80,0.00,,,0.00,Wunderground v.1.15,2013-02-24 01:51:00,
2013-02-23 20:53:00,27.3,22.2,29.99,NW,318,14.0,17.0,81,0.00,,,0.00,Wunderground v.1.15,2013-02-24 01:53:00,
2013-02-23 20:54:00,27.3,21.9,29.99,NW,326,12.0,17.0,80,0.00,,,0.00,Wunderground v.1.15,2013-02-24 01:54:00,
2013-02-23 20:56:00,27.4,22.0,29.99,NW,313,14.0,19.0,80,0.00,,,0.00,Wunderground v.1.15,2013-02-24 01:56:00,
2013-02-23 20:57:00,27.4,22.0,29.99,NNW,337,14.0,19.0,80,0.00,,,0.00,Wunderground v.1.15,2013-02-24 01:57:00,
2013-02-23 20:59:00,27.4,21.7,29.99,NW,315,15.0,19.0,79,0.00,,,0.00,Wunderground v.1.15,2013-02-24 01:59:00,
2013-02-23 21:02:00,27.4,22.0,29.99,NW,326,14.0,17.0,80,0.00,,,0.00,Wunderground v.1.15,2013-02-24 02:02:00,
2013-02-23 21:04:00,27.3,21.9,29.99,NW,323,14.0,17.0,80,0.00,,,0.00,Wunderground v.1.15,2013-02-24 02:04:00,
2013-02-23 21:07:00,27.3,22.2,29.99,NW,326,10.0,18.0,81,0.00,,,0.00,Wunderground v.1.15,2013-02-24 02:07:00,
2013-02-23 21:08:00,27.3,22.2,29.99,NW,306,6.0,18.0,81,0.00,,,0.00,Wunderground v.1.15,2013-02-24 02:08:00,
2013-02-23 21:09:00,27.2,21.8,29.99,NW,325,11.0,18.0,80,0.00,,,0.00,Wunderground v.1.15,2013-02-24 02:09:00,
2013-02-23 21:10:00,27.2,21.8,29.99,WNW,299,11.0,18.0,80,0.00,,,0.00,Wunderground v.1.15,2013-02-24 02:10:00,
2013-02-23 21:12:00,27.1,21.7,29.99,NW,307,12.0,18.0,80,0.00,,,0.00,Wunderground v.1.15,2013-02-24 02:12:00,
2013-02-23 21:13:00,27.1,21.7,29.99,NW,323,11.0,18.0,80,0.00,,,0.00,Wunderground v.1.15,2013-02-24 02:13:00,
2013-02-23 21:15:00,27.0,21.7,29.99,NW,313,11.0,18.0,80,0.00,,,0.00,Wunderground v.1.15,2013-02-24 02:15:00,
2013-02-23 21:17:00,27.2,22.1,29.99,NW,317,14.0,18.0,81,0.00,,,0.00,Wunderground v.1.15,2013-02-24 02:17:00,
2013-02-23 21:18:00,27.2,22.1,29.99,NW,312,15.0,18.0,81,0.00,,,0.00,Wunderground v.1.15,2013-02-24 02:18:00,
2013-02-23 21:20:00,27.1,21.7,29.99,NNW,333,10.0,12.0,80,0.00,,,0.00,Wunderground v.1.15,2013-02-24 02:20:00,
2013-02-23 21:23:00,27.1,21.7,29.99,NW,316,15.0,16.0,80,0.00,,,0.00,Wunderground v.1.15,2013-02-24 02:23:00,
2013-02-23 21:25:00,27.1,22.0,29.99,NNW,334,12.0,16.0,81,0.00,,,0.00,Wunderground v.1.15,2013-02-24 02:25:00,
2013-02-23 21:28:00,27.1,21.7,29.99,WNW,300,7.0,17.0,80,0.00,,,0.00,Wunderground v.1.15,2013-02-24 02:28:00,
2013-02-23 21:30:00,27.1,21.7,29.99,NW,323,14.0,15.0,80,0.00,,,0.00,Wunderground v.1.15,2013-02-24 02:30:00,
2013-02-23 21:33:00,27.1,22.0,29.99,NW,314,9.0,17.0,81,0.00,,,0.00,Wunderground v.1.15,2013-02-24 02:33:00,
2013-02-23 21:35:00,27.2,22.1,29.99,NNW,331,11.0,17.0,81,0.00,,,0.00,Wunderground v.1.15,2013-02-24 02:35:00,
2013-02-23 21:36:00,27.1,22.0,29.99,NW,319,6.0,17.0,81,0.00,,,0.00,Wunderground v.1.15,2013-02-24 02:36:00,
2013-02-23 21:38:00,27.1,22.0,29.99,WNW,296,12.0,17.0,81,0.00,,,0.00,Wunderground v.1.15,2013-02-24 02:38:00,
2013-02-23 21:39:00,27.1,22.0,29.99,NW,317,11.0,17.0,81,0.00,,,0.00,Wunderground v.1.15,2013-02-24 02:39:00,
2013-02-23 21:41:00,27.1,22.0,29.99,NNW,330,7.0,12.0,81,0.00,,,0.00,Wunderground v.1.15,2013-02-24 02:41:00,
2013-02-23 21:43:00,27.2,22.4,29.99,NW,314,12.0,15.0,82,0.00,,,0.00,Wunderground v.1.15,2013-02-24 02:43:00,
2013-02-23 21:44:00,27.2,22.4,29.99,NW,315,12.0,15.0,82,0.00,,,0.00,Wunderground v.1.15,2013-02-24 02:44:00,
2013-02-23 21:46:00,27.2,21.8,29.99,NNW,336,16.0,17.0,80,0.00,,,0.00,Wunderground v.1.15,2013-02-24 02:46:00,
2013-02-23 21:48:00,27.2,22.1,29.99,NNW,339,7.0,17.0,81,0.00,,,0.00,Wunderground v.1.15,2013-02-24 02:48:00,
2013-02-23 21:49:00,27.2,22.1,29.99,NW,316,12.0,17.0,81,0.00,,,0.00,Wunderground v.1.15,2013-02-24 02:49:00,
2013-02-23 21:52:00,27.2,22.1,29.99,NW,315,16.0,17.0,81,0.00,,,0.00,Wunderground v.1.15,2013-02-24 02:52:00,
2013-02-23 21:54:00,27.3,22.2,29.99,NW,318,14.0,18.0,81,0.00,,,0.00,Wunderground v.1.15,2013-02-24 02:54:00,
2013-02-23 21:57:00,27.3,22.2,29.99,NW,320,12.0,18.0,81,0.00,,,0.00,Wunderground v.1.15,2013-02-24 02:57:00,
2013-02-23 21:58:00,27.3,21.9,29.99,NNW,329,13.0,18.0,80,0.00,,,0.00,Wunderground v.1.15,2013-02-24 02:58:00,
2013-02-23 21:59:00,27.2,22.1,29.99,NW,306,15.0,18.0,81,0.00,,,0.00,Wunderground v.1.15,2013-02-24 02:59:00,
2013-02-23 22:02:00,27.2,21.8,29.99,NW,319,14.0,18.0,80,0.00,,,0.00,Wunderground v.1.15,2013-02-24 03:02:00,
2013-02-23 22:03:00,27.3,22.2,29.99,NW,313,14.0,18.0,81,0.00,,,0.00,Wunderground v.1.15,2013-02-24 03:03:00,
2013-02-23 22:04:00,27.3,22.2,29.99,NW,325,13.0,18.0,81,0.00,,,0.00,Wunderground v.1.15,2013-02-24 03:04:00,
2013-02-23 22:05:00,27.3,22.2,29.99,NW,321,16.0,18.0,81,0.00,,,0.00,Wunderground v.1.15,2013-02-24 03:05:00,
2013-02-23 22:07:00,27.3,21.9,29.99,NW,310,15.0,18.0,80,0.00,,,0.00,Wunderground v.1.15,2013-02-24 03:07:00,
2013-02-23 22:08:00,27.3,22.2,29.99,NNW,329,15.0,18.0,81,0.00,,,0.00,Wunderground v.1.15,2013-02-24 03:08:00,
2013-02-23 22:09:00,27.3,22.2,29.99,NW,326,13.0,18.0,81,0.00,,,0.00,Wunderground v.1.15,2013-02-24 03:09:00,
2013-02-23 22:10:00,27.4,22.0,29.99,NW,314,17.0,17.0,80,0.00,,,0.00,Wunderground v.1.15,2013-02-24 03:10:00,
2013-02-23 22:12:00,27.4,22.0,29.99,NW,325,16.0,17.0,80,0.00,,,0.00,Wunderground v.1.15,2013-02-24 03:12:00,
2013-02-23 22:13:00,27.4,22.0,29.99,NW,320,13.0,17.0,80,0.00,,,0.00,Wunderground v.1.15,2013-02-24 03:13:00,
2013-02-23 22:14:00,27.3,21.9,29.99,NW,311,13.0,17.0,80,0.00,,,0.00,Wunderground v.1.15,2013-02-24 03:14:00,
2013-02-23 22:15:00,27.4,22.0,29.99,NW,319,13.0,17.0,80,0.00,,,0.00,Wunderground v.1.15,2013-02-24 03:15:00,
2013-02-23 22:17:00,27.4,21.7,29.99,NW,319,14.0,17.0,79,0.00,,,0.00,Wunderground v.1.15,2013-02-24 03:17:00,
2013-02-23 22:19:00,27.3,21.3,29.99,NW,323,14.0,17.0,78,0.00,,,0.00,Wunderground v.1.15,2013-02-24 03:19:00,
2013-02-23 22:20:00,27.3,21.3,29.99,NW,314,14.0,14.0,78,0.00,,,0.00,Wunderground v.1.15,2013-02-24 03:20:00,
2013-02-23 22:21:00,27.4,21.7,29.99,NW,308,12.0,15.0,79,0.00,,,0.00,Wunderground v.1.15,2013-02-24 03:21:00,
2013-02-23 22:22:00,27.4,22.0,29.99,NNW,327,14.0,15.0,80,0.00,,,0.00,Wunderground v.1.15,2013-02-24 03:22:00,
2013-02-23 22:24:00,27.3,21.9,29.99,NW,313,14.0,16.0,80,0.00,,,0.00,Wunderground v.1.15,2013-02-24 03:24:00,
2013-02-23 22:25:00,27.3,21.9,29.99,NW,319,13.0,16.0,80,0.00,,,0.00,Wunderground v.1.15,2013-02-24 03:25:00,
2013-02-23 22:26:00,27.3,21.9,29.99,NW,319,13.0,17.0,80,0.00,,,0.00,Wunderground v.1.15,2013-02-24 03:26:00,
2013-02-23 22:28:00,27.2,21.8,29.99,NW,319,14.0,17.0,80,0.00,,,0.00,Wunderground v.1.15,2013-02-24 03:28:00,
2013-02-23 22:29:00,27.2,21.8,29.98,NW,326,11.0,17.0,80,0.00,,,0.00,Wunderground v.1.15,2013-02-24 03:29:00,
2013-02-23 22:30:00,27.3,22.2,29.98,NW,326,19.0,19.0,81,0.00,,,0.00,Wunderground v.1.15,2013-02-24 03:30:00,
2013-02-23 22:32:00,27.4,22.0,29.98,NW,322,16.0,19.0,80,0.00,,,0.00,Wunderground v.1.15,2013-02-24 03:32:00,
2013-02-23 22:33:00,27.4,22.0,29.98,NW,313,15.0,19.0,80,0.00,,,0.00,Wunderground v.1.15,2013-02-24 03:33:00,
2013-02-23 22:34:00,27.4,21.7,29.98,NNW,327,13.0,19.0,79,0.00,,,0.00,Wunderground v.1.15,2013-02-24 03:34:00,
2013-02-23 22:35:00,27.4,22.0,29.98,NW,317,14.0,19.0,80,0.00,,,0.00,Wunderground v.1.15,2013-02-24 03:35:00,
2013-02-23 22:37:00,27.4,22.0,29.99,NW,319,13.0,19.0,80,0.00,,,0.00,Wunderground v.1.15,2013-02-24 03:37:00,
2013-02-23 22:38:00,27.4,22.0,29.98,NNW,329,16.0,19.0,80,0.00,,,0.00,Wunderground v.1.15,2013-02-24 03:38:00,
2013-02-23 22:39:00,27.4,22.0,29.98,NNW,327,15.0,19.0,80,0.00,,,0.00,Wunderground v.1.15,2013-02-24 03:39:00,
2013-02-23 22:41:00,27.4,22.0,29.98,NW,317,16.0,18.0,80,0.00,,,0.00,Wunderground v.1.15,2013-02-24 03:41:00,
2013-02-23 22:42:00,27.4,22.3,29.98,WNW,300,13.0,18.0,81,0.00,,,0.00,Wunderground v.1.15,2013-02-24 03:42:00,
2013-02-23 22:43:00,27.5,22.4,29.98,NNW,331,13.0,18.0,81,0.00,,,0.00,Wunderground v.1.15,2013-02-24 03:43:00,
2013-02-23 22:44:00,27.5,22.4,29.98,NW,306,15.0,18.0,81,0.00,,,0.00,Wunderground v.1.15,2013-02-24 03:44:00,
2013-02-23 22:46:00,27.4,22.0,29.98,WNW,293,16.0,18.0,80,0.00,,,0.00,Wunderground v.1.15,2013-02-24 03:46:00,
2013-02-23 22:47:00,27.4,22.3,29.98,NW,326,20.0,20.0,81,0.00,,,0.00,Wunderground v.1.15,2013-02-24 03:47:00,
2013-02-23 22:49:00,27.5,22.1,29.98,NW,325,19.0,20.0,80,0.00,,,0.00,Wunderground v.1.15,2013-02-24 03:49:00,
2013-02-23 22:51:00,27.5,22.4,29.98,NW,324,13.0,17.0,81,0.00,,,0.00,Wunderground v.1.15,2013-02-24 03:51:00,
2013-02-23 22:53:00,27.4,22.3,29.98,NNW,327,17.0,18.0,81,0.00,,,0.00,Wunderground v.1.15,2013-02-24 03:53:00,
2013-02-23 22:54:00,27.4,22.3,29.98,NW,326,18.0,20.0,81,0.00,,,0.00,Wunderground v.1.15,2013-02-24 03:54:00,
2013-02-23 22:55:00,27.5,22.7,29.98,NW,325,20.0,20.0,82,0.00,,,0.00,Wunderground v.1.15,2013-02-24 03:55:00,
2013-02-23 22:56:00,27.5,22.7,29.98,NW,315,15.0,20.0,82,0.00,,,0.00,Wunderground v.1.15,2013-02-24 03:56:00,
2013-02-23 22:59:00,27.4,22.6,29.98,NW,316,15.0,20.0,82,0.00,,,0.00,Wunderground v.1.15,2013-02-24 03:59:00,
2013-02-23 23:00:00,27.4,22.6,29.98,NNW,330,18.0,20.0,82,0.00,,,0.00,Wunderground v.1.15,2013-02-24 04:00:00,
2013-02-23 23:01:00,27.4,22.3,29.98,NW,321,16.0,20.0,81,0.00,,,0.00,Wunderground v.1.15,2013-02-24 04:01:00,
2013-02-23 23:04:00,27.5,22.7,29.98,NNW,332,20.0,22.0,82,0.00,,,0.00,Wunderground v.1.15,2013-02-24 04:04:00,
2013-02-23 23:05:00,27.5,22.7,29.98,NNW,329,19.0,22.0,82,0.00,,,0.00,Wunderground v.1.15,2013-02-24 04:05:00,
2013-02-23 23:07:00,27.4,22.6,29.98,NNW,327,19.0,22.0,82,0.00,,,0.00,Wunderground v.1.15,2013-02-24 04:07:00,
2013-02-23 23:09:00,27.4,22.3,29.98,NW,319,14.0,22.0,81,0.00,,,0.00,Wunderground v.1.15,2013-02-24 04:09:00,
2013-02-23 23:10:00,27.4,22.3,29.98,NNW,336,18.0,18.0,81,0.00,,,0.00,Wunderground v.1.15,2013-02-24 04:10:00,
2013-02-23 23:12:00,27.5,22.7,29.98,NW,324,18.0,23.0,82,0.00,,,0.00,Wunderground v.1.15,2013-02-24 04:12:00,
2013-02-23 23:14:00,27.5,22.4,29.98,NNW,329,20.0,23.0,81,0.00,,,0.00,Wunderground v.1.15,2013-02-24 04:14:00,
2013-02-23 23:15:00,27.5,22.4,29.98,NW,310,19.0,23.0,81,0.00,,,0.00,Wunderground v.1.15,2013-02-24 04:15:00,
2013-02-23 23:17:00,27.5,22.7,29.98,NW,324,19.0,23.0,82,0.00,,,0.00,Wunderground v.1.15,2013-02-24 04:17:00,
2013-02-23 23:19:00,27.5,22.4,29.98,NW,313,20.0,23.0,81,0.00,,,0.00,Wunderground v.1.15,2013-02-24 04:19:00,
2013-02-23 23:20:00,27.5,22.4,29.98,NNW,331,19.0,20.0,81,0.00,,,0.00,Wunderground v.1.15,2013-02-24 04:20:00,
2013-02-23 23:21:00,27.5,22.4,29.98,NW,314,16.0,20.0,81,0.00,,,0.00,Wunderground v.1.15,2013-02-24 04:21:00,
2013-02-23 23:23:00,27.6,22.8,29.98,NW,325,16.0,20.0,82,0.00,,,0.00,Wunderground v.1.15,2013-02-24 04:23:00,
2013-02-23 23:24:00,27.5,22.7,29.98,NNW,329,19.0,20.0,82,0.00,,,0.00,Wunderground v.1.15,2013-02-24 04:24:00,
2013-02-23 23:25:00,27.5,22.7,29.98,NW,319,19.0,23.0,82,0.00,,,0.00,Wunderground v.1.15,2013-02-24 04:25:00,
2013-02-23 23:26:00,27.5,22.4,29.98,NW,325,17.0,23.0,81,0.00,,,0.00,Wunderground v.1.15,2013-02-24 04:26:00,
2013-02-23 23:28:00,27.5,22.4,29.98,NW,325,17.0,23.0,81,0.00,,,0.00,Wunderground v.1.15,2013-02-24 04:28:00,
2013-02-23 23:30:00,27.5,22.7,29.98,NW,322,17.0,17.0,82,0.00,,,0.00,Wunderground v.1.15,2013-02-24 04:30:00,
2013-02-23 23:31:00,27.5,22.4,29.97,NW,325,17.0,21.0,81,0.00,,,0.00,Wunderground v.1.15,2013-02-24 04:31:00,
2013-02-23 23:33:00,27.5,22.1,29.97,NNW,327,19.0,21.0,80,0.00,,,0.00,Wunderground v.1.15,2013-02-24 04:33:00,
2013-02-23 23:36:00,27.5,22.4,29.97,NW,323,19.0,21.0,81,0.00,,,0.00,Wunderground v.1.15,2013-02-24 04:36:00,
2013-02-23 23:37:00,27.6,22.2,29.97,NW,325,21.0,22.0,80,0.00,,,0.00,Wunderground v.1.15,2013-02-24 04:37:00,
2013-02-23 23:38:00,27.6,22.5,29.97,NNW,331,17.0,22.0,81,0.00,,,0.00,Wunderground v.1.15,2013-02-24 04:38:00,
2013-02-23 23:41:00,27.7,23.2,29.97,NNW,329,19.0,21.0,83,0.00,,,0.00,Wunderground v.1.15,2013-02-24 04:41:00,
2013-02-23 23:42:00,27.7,22.9,29.97,NW,326,20.0,22.0,82,0.00,,,0.00,Wunderground v.1.15,2013-02-24 04:42:00,
2013-02-23 23:43:00,27.7,22.6,29.97,NW,313,17.0,22.0,81,0.00,,,0.00,Wunderground v.1.15,2013-02-24 04:43:00,
2013-02-23 23:46:00,27.7,22.6,29.97,NNW,336,17.0,22.0,81,0.00,,,0.00,Wunderground v.1.15,2013-02-24 04:46:00,
2013-02-23 23:47:00,27.7,22.3,29.97,NW,322,21.0,22.0,80,0.00,,,0.00,Wunderground v.1.15,2013-02-24 04:47:00,
2013-02-23 23:49:00,27.7,22.6,29.97,NNW,333,19.0,22.0,81,0.00,,,0.00,Wunderground v.1.15,2013-02-24 04:49:00,
2013-02-23 23:51:00,27.7,22.3,29.97,NNW,335,18.0,20.0,80,0.00,,,0.00,Wunderground v.1.15,2013-02-24 04:51:00,
2013-02-23 23:52:00,27.6,22.2,29.97,NW,326,17.0,20.0,80,0.00,,,0.00,Wunderground v.1.15,2013-02-24 04:52:00,
2013-02-23 23:55:00,27.7,22.3,29.97,NNW,340,19.0,23.0,80,0.00,,,0.00,Wunderground v.1.15,2013-02-24 04:55:00,
2013-02-23 23:56:00,27.7,22.6,29.97,NW,317,16.0,23.0,81,0.00,,,0.00,Wunderground v.1.15,2013-02-24 04:56:00,
2013-02-23 23:57:00,27.8,22.7,29.97,NNW,334,16.0,23.0,81,0.00,,,0.00,Wunderground v.1.15,2013-02-24 04:57:00,